Time,TemperatureF,DewpointF,PressureIn,WindDirection,WindDirectionDegrees,WindSpeedMPH,WindSpeedGustMPH,Humidity,HourlyPrecipIn,Conditions,Clouds,dailyrainin,SoftwareType,DateUTC
2013-06-09 00:00:00,65.2,61.2,29.74,WNW,290,0.0,0.0,87,0.00,,,0.00,Wunderground v.1.15,2013-06-09 05:00:00,
2013-06-09 00:01:00,65.2,61.2,29.73,WNW,290,0.0,0.0,87,0.00,,,0.00,Wunderground v.1.15,2013-06-09 05:01:00,
2013-06-09 00:02:00,65.2,61.2,29.73,WNW,290,0.0,0.0,87,0.00,,,0.00,Wunderground v.1.15,2013-06-09 05:02:00,
2013-06-09 00:06:00,65.1,61.1,29.73,WNW,290,0.0,0.0,87,0.00,,,0.00,Wunderground v.1.15,2013-06-09 05:06:00,
2013-06-09 00:07:00,65.1,61.1,29.73,WNW,290,0.0,0.0,87,0.00,,,0.00,Wunderground v.1.15,2013-06-09 05:07:00,
2013-06-09 00:08:00,65.1,61.1,29.73,WNW,290,0.0,0.0,87,0.00,,,0.00,Wunderground v.1.15,2013-06-09 05:08:00,
2013-06-09 00:10:00,65.1,61.1,29.74,WNW,290,0.0,0.0,87,0.00,,,0.00,Wunderground v.1.15,2013-06-09 05:10:00,
2013-06-09 00:11:00,65.1,61.1,29.74,WNW,290,0.0,0.0,87,0.00,,,0.00,Wunderground v.1.15,2013-06-09 05:11:00,
2013-06-09 00:12:00,65.1,61.5,29.74,WNW,290,0.0,0.0,88,0.00,,,0.00,Wunderground v.1.15,2013-06-09 05:12:00,
2013-06-09 00:14:00,65.1,61.5,29.74,WNW,290,0.0,0.0,88,0.00,,,0.00,Wunderground v.1.15,2013-06-09 05:14:00,
2013-06-09 00:16:00,65.0,61.4,29.74,WNW,290,0.0,0.0,88,0.00,,,0.00,Wunderground v.1.15,2013-06-09 05:16:00,
2013-06-09 00:18:00,65.0,61.4,29.74,WNW,290,0.0,0.0,88,0.00,,,0.00,Wunderground v.1.15,2013-06-09 05:18:00,
2013-06-09 00:19:00,64.9,61.3,29.74,WNW,290,0.0,0.0,88,0.00,,,0.00,Wunderground v.1.15,2013-06-09 05:19:00,
2013-06-09 00:22:00,64.8,60.8,29.74,WNW,290,0.0,0.0,87,0.00,,,0.00,Wunderground v.1.15,2013-06-09 05:22:00,
2013-06-09 00:23:00,64.8,60.8,29.74,WNW,290,0.0,0.0,87,0.00,,,0.00,Wunderground v.1.15,2013-06-09 05:23:00,
2013-06-09 00:24:00,64.8,61.2,29.74,WNW,290,0.0,0.0,88,0.00,,,0.00,Wunderground v.1.15,2013-06-09 05:24:00,
2013-06-09 00:25:00,64.7,61.1,29.74,WNW,290,0.0,0.0,88,0.00,,,0.00,Wunderground v.1.15,2013-06-09 05:25:00,
2013-06-09 00:28:00,64.7,61.1,29.74,WNW,290,0.0,0.0,88,0.00,,,0.00,Wunderground v.1.15,2013-06-09 05:28:00,
2013-06-09 00:31:00,64.7,61.1,29.74,WNW,290,0.0,0.0,88,0.00,,,0.00,Wunderground v.1.15,2013-06-09 05:31:00,
2013-06-09 00:32:00,64.7,61.1,29.74,WNW,290,0.0,0.0,88,0.00,,,0.00,Wunderground v.1.15,2013-06-09 05:32:00,
2013-06-09 00:36:00,64.7,61.4,29.74,WNW,290,0.0,0.0,89,0.00,,,0.00,Wunderground v.1.15,2013-06-09 05:36:00,
2013-06-09 00:37:00,64.7,61.4,29.74,WNW,290,0.0,0.0,89,0.00,,,0.00,Wunderground v.1.15,2013-06-09 05:37:00,
2013-06-09 00:40:00,64.7,61.4,29.74,WNW,290,0.0,0.0,89,0.00,,,0.00,Wunderground v.1.15,2013-06-09 05:40:00,
2013-06-09 00:42:00,64.7,61.4,29.74,WNW,290,0.0,0.0,89,0.00,,,0.00,Wunderground v.1.15,2013-06-09 05:42:00,
2013-06-09 00:43:00,64.7,61.4,29.74,WNW,290,0.0,0.0,89,0.00,,,0.00,Wunderground v.1.15,2013-06-09 05:43:00,
2013-06-09 00:45:00,64.7,61.4,29.74,WNW,290,0.0,0.0,89,0.00,,,0.00,Wunderground v.1.15,2013-06-09 05:45:00,
2013-06-09 00:48:00,64.6,61.3,29.74,WNW,290,0.0,0.0,89,0.00,,,0.00,Wunderground v.1.15,2013-06-09 05:48:00,
2013-06-09 00:50:00,64.6,61.3,29.74,WNW,290,0.0,0.0,89,0.00,,,0.00,Wunderground v.1.15,2013-06-09 05:50:00,
2013-06-09 00:52:00,64.6,61.3,29.74,WNW,290,0.0,0.0,89,0.00,,,0.00,Wunderground v.1.15,2013-06-09 05:52:00,
2013-06-09 00:53:00,64.7,61.4,29.74,WNW,290,0.0,0.0,89,0.00,,,0.00,Wunderground v.1.15,2013-06-09 05:53:00,
2013-06-09 00:55:00,64.7,61.7,29.74,WNW,290,0.0,0.0,90,0.00,,,0.00,Wunderground v.1.15,2013-06-09 05:55:00,
2013-06-09 00:56:00,64.7,61.7,29.75,WNW,290,0.0,0.0,90,0.00,,,0.00,Wunderground v.1.15,2013-06-09 05:56:00,
2013-06-09 00:58:00,64.7,61.7,29.75,WNW,290,0.0,0.0,90,0.00,,,0.00,Wunderground v.1.15,2013-06-09 05:58:00,
2013-06-09 00:59:00,64.7,61.7,29.75,WNW,290,0.0,0.0,90,0.00,,,0.00,Wunderground v.1.15,2013-06-09 05:59:00,
2013-06-09 01:02:00,64.8,61.8,29.74,WNW,290,0.0,0.0,90,0.00,,,0.00,Wunderground v.1.15,2013-06-09 06:02:00,
2013-06-09 01:05:00,64.9,61.9,29.74,WNW,290,0.0,0.0,90,0.00,,,0.00,Wunderground v.1.15,2013-06-09 06:05:00,
2013-06-09 01:06:00,64.9,61.9,29.74,WNW,290,0.0,0.0,90,0.00,,,0.00,Wunderground v.1.15,2013-06-09 06:06:00,
2013-06-09 01:09:00,65.1,62.1,29.74,WNW,290,1.0,1.0,90,0.00,,,0.00,Wunderground v.1.15,2013-06-09 06:09:00,
2013-06-09 01:12:00,65.4,62.1,29.74,WNW,290,0.0,1.0,89,0.00,,,0.00,Wunderground v.1.15,2013-06-09 06:12:00,
2013-06-09 01:13:00,65.6,62.3,29.74,WNW,290,0.0,1.0,89,0.00,,,0.00,Wunderground v.1.15,2013-06-09 06:13:00,
2013-06-09 01:14:00,65.8,62.5,29.73,WNW,290,1.0,1.0,89,0.00,,,0.00,Wunderground v.1.15,2013-06-09 06:14:00,
2013-06-09 01:16:00,66.2,61.9,29.73,WSW,246,1.0,1.0,86,0.00,,,0.00,Wunderground v.1.15,2013-06-09 06:16:00,
2013-06-09 01:17:00,66.4,62.1,29.73,WSW,246,1.0,1.0,86,0.00,,,0.00,Wunderground v.1.15,2013-06-09 06:17:00,
2013-06-09 01:20:00,66.9,62.2,29.73,WSW,246,0.0,1.0,85,0.00,,,0.00,Wunderground v.1.15,2013-06-09 06:20:00,
2013-06-09 01:21:00,67.1,62.1,29.73,WSW,246,0.0,1.0,84,0.00,,,0.00,Wunderground v.1.15,2013-06-09 06:21:00,
2013-06-09 01:24:00,67.6,62.3,29.73,WSW,246,0.0,0.0,83,0.00,,,0.00,Wunderground v.1.15,2013-06-09 06:24:00,
2013-06-09 01:26:00,67.8,62.1,29.73,WSW,242,2.0,2.0,82,0.00,,,0.00,Wunderground v.1.15,2013-06-09 06:26:00,
2013-06-09 01:27:00,67.9,61.9,29.73,SW,236,1.0,2.0,81,0.00,,,0.00,Wunderground v.1.15,2013-06-09 06:27:00,
2013-06-09 01:28:00,68.0,62.3,29.73,SW,221,1.0,2.0,82,0.00,,,0.00,Wunderground v.1.15,2013-06-09 06:28:00,
2013-06-09 01:29:00,68.1,62.0,29.73,SW,221,1.0,2.0,81,0.00,,,0.00,Wunderground v.1.15,2013-06-09 06:29:00,
2013-06-09 01:34:00,68.6,62.2,29.73,SW,221,0.0,1.0,80,0.00,,,0.00,Wunderground v.1.15,2013-06-09 06:34:00,
2013-06-09 01:35:00,68.6,62.2,29.73,SW,221,0.0,1.0,80,0.00,,,0.00,Wunderground v.1.15,2013-06-09 06:35:00,
2013-06-09 01:37:00,68.8,62.4,29.72,SW,221,0.0,1.0,80,0.00,,,0.00,Wunderground v.1.15,2013-06-09 06:37:00,
2013-06-09 01:39:00,68.9,62.1,29.72,SW,221,0.0,1.0,79,0.00,,,0.00,Wunderground v.1.15,2013-06-09 06:39:00,
2013-06-09 01:40:00,68.9,61.8,29.72,SW,221,0.0,1.0,78,0.00,,,0.00,Wunderground v.1.15,2013-06-09 06:40:00,
2013-06-09 01:42:00,69.0,61.9,29.72,SW,221,0.0,1.0,78,0.00,,,0.00,Wunderground v.1.15,2013-06-09 06:42:00,
2013-06-09 01:45:00,69.2,62.0,29.72,SW,221,0.0,0.0,78,0.00,,,0.00,Wunderground v.1.15,2013-06-09 06:45:00,
2013-06-09 01:47:00,69.3,62.1,29.72,SW,221,0.0,0.0,78,0.00,,,0.00,Wunderground v.1.15,2013-06-09 06:47:00,
2013-06-09 01:48:00,69.3,62.1,29.72,SW,221,0.0,0.0,78,0.00,,,0.00,Wunderground v.1.15,2013-06-09 06:48:00,
2013-06-09 01:51:00,69.4,61.9,29.72,SW,221,0.0,0.0,77,0.00,,,0.00,Wunderground v.1.15,2013-06-09 06:51:00,
2013-06-09 01:53:00,69.5,62.0,29.72,SW,221,1.0,1.0,77,0.00,,,0.00,Wunderground v.1.15,2013-06-09 06:53:00,
2013-06-09 01:55:00,69.6,62.1,29.72,SW,221,1.0,1.0,77,0.00,,,0.00,Wunderground v.1.15,2013-06-09 06:55:00,
2013-06-09 01:57:00,69.7,61.8,29.72,SW,221,1.0,1.0,76,0.00,,,0.00,Wunderground v.1.15,2013-06-09 06:57:00,
2013-06-09 01:58:00,69.7,61.8,29.72,SW,221,0.0,1.0,76,0.00,,,0.00,Wunderground v.1.15,2013-06-09 06:58:00,
2013-06-09 01:59:00,69.8,61.9,29.72,SW,221,0.0,1.0,76,0.00,,,0.00,Wunderground v.1.15,2013-06-09 06:59:00,
2013-06-09 02:03:00,69.9,62.0,29.72,SW,221,0.0,1.0,76,0.00,,,0.00,Wunderground v.1.15,2013-06-09 07:03:00,
2013-06-09 02:04:00,69.9,62.0,29.72,SW,221,0.0,0.0,76,0.00,,,0.00,Wunderground v.1.15,2013-06-09 07:04:00,
2013-06-09 02:05:00,69.9,62.7,29.72,SW,221,0.0,0.0,78,0.00,,,0.00,Wunderground v.1.15,2013-06-09 07:05:00,
2013-06-09 02:08:00,69.9,62.7,29.72,SW,221,0.0,0.0,78,0.00,,,0.00,Wunderground v.1.15,2013-06-09 07:08:00,
2013-06-09 02:09:00,69.9,62.7,29.72,SW,221,0.0,0.0,78,0.00,,,0.00,Wunderground v.1.15,2013-06-09 07:09:00,
2013-06-09 02:10:00,69.9,63.1,29.72,SW,221,0.0,0.0,79,0.00,,,0.00,Wunderground v.1.15,2013-06-09 07:10:00,
2013-06-09 02:11:00,69.9,63.1,29.72,SW,221,0.0,0.0,79,0.00,,,0.00,Wunderground v.1.15,2013-06-09 07:11:00,
2013-06-09 02:13:00,69.9,62.7,29.72,SW,221,0.0,0.0,78,0.00,,,0.00,Wunderground v.1.15,2013-06-09 07:13:00,
2013-06-09 02:14:00,69.8,63.0,29.72,SW,221,0.0,0.0,79,0.00,,,0.00,Wunderground v.1.15,2013-06-09 07:14:00,
2013-06-09 02:15:00,69.8,63.0,29.72,SW,221,0.0,0.0,79,0.00,,,0.00,Wunderground v.1.15,2013-06-09 07:15:00,
2013-06-09 02:16:00,69.8,63.0,29.72,SW,221,0.0,0.0,79,0.00,,,0.00,Wunderground v.1.15,2013-06-09 07:16:00,
2013-06-09 02:18:00,69.8,62.6,29.72,SW,221,0.0,0.0,78,0.00,,,0.00,Wunderground v.1.15,2013-06-09 07:18:00,
2013-06-09 02:19:00,69.7,62.5,29.72,SW,221,0.0,0.0,78,0.00,,,0.00,Wunderground v.1.15,2013-06-09 07:19:00,
2013-06-09 02:20:00,69.7,62.5,29.72,SW,221,0.0,0.0,78,0.00,,,0.00,Wunderground v.1.15,2013-06-09 07:20:00,
2013-06-09 02:21:00,69.7,62.5,29.72,SW,221,0.0,0.0,78,0.00,,,0.00,Wunderground v.1.15,2013-06-09 07:21:00,
2013-06-09 02:22:00,69.7,62.5,29.72,SW,221,0.0,0.0,78,0.00,,,0.00,Wunderground v.1.15,2013-06-09 07:22:00,
2013-06-09 02:24:00,69.7,62.5,29.72,SW,221,0.0,0.0,78,0.00,,,0.00,Wunderground v.1.15,2013-06-09 07:24:00,
2013-06-09 02:27:00,69.7,62.9,29.72,SW,221,0.0,0.0,79,0.00,,,0.00,Wunderground v.1.15,2013-06-09 07:27:00,
2013-06-09 02:29:00,69.7,62.9,29.72,SW,221,0.0,0.0,79,0.00,,,0.00,Wunderground v.1.15,2013-06-09 07:29:00,
2013-06-09 02:30:00,69.7,62.9,29.72,SW,221,0.0,0.0,79,0.00,,,0.00,Wunderground v.1.15,2013-06-09 07:30:00,
2013-06-09 02:32:00,69.7,62.5,29.72,SW,221,0.0,0.0,78,0.00,,,0.00,Wunderground v.1.15,2013-06-09 07:32:00,
2013-06-09 02:33:00,69.7,62.9,29.72,SW,221,0.0,0.0,79,0.00,,,0.00,Wunderground v.1.15,2013-06-09 07:33:00,
2013-06-09 02:35:00,69.7,62.9,29.72,SW,221,0.0,0.0,79,0.00,,,0.00,Wunderground v.1.15,2013-06-09 07:35:00,
2013-06-09 02:37:00,69.7,62.9,29.72,SW,221,0.0,0.0,79,0.00,,,0.00,Wunderground v.1.15,2013-06-09 07:37:00,
2013-06-09 02:38:00,69.7,62.9,29.72,SW,221,0.0,0.0,79,0.00,,,0.00,Wunderground v.1.15,2013-06-09 07:38:00,
2013-06-09 02:40:00,69.7,62.5,29.72,SW,221,0.0,0.0,78,0.00,,,0.00,Wunderground v.1.15,2013-06-09 07:40:00,
2013-06-09 02:42:00,69.7,62.9,29.71,SW,221,0.0,0.0,79,0.00,,,0.00,Wunderground v.1.15,2013-06-09 07:42:00,
2013-06-09 02:43:00,69.7,63.3,29.71,SW,221,0.0,0.0,80,0.00,,,0.00,Wunderground v.1.15,2013-06-09 07:43:00,
2013-06-09 02:45:00,69.7,63.6,29.71,SW,221,0.0,0.0,81,0.00,,,0.00,Wunderground v.1.15,2013-06-09 07:45:00,
2013-06-09 02:46:00,69.6,63.9,29.71,SW,221,0.0,0.0,82,0.00,,,0.00,Wunderground v.1.15,2013-06-09 07:46:00,
2013-06-09 02:47:00,69.6,63.5,29.72,SW,221,0.0,0.0,81,0.00,,,0.00,Wunderground v.1.15,2013-06-09 07:47:00,
2013-06-09 02:48:00,69.5,63.4,29.72,SW,221,0.0,0.0,81,0.00,,,0.00,Wunderground v.1.15,2013-06-09 07:48:00,
2013-06-09 02:51:00,69.4,63.3,29.72,SW,221,0.0,0.0,81,0.00,,,0.00,Wunderground v.1.15,2013-06-09 07:51:00,
2013-06-09 02:52:00,69.4,63.0,29.72,SW,221,0.0,0.0,80,0.00,,,0.00,Wunderground v.1.15,2013-06-09 07:52:00,
2013-06-09 02:53:00,69.4,63.0,29.72,SW,221,0.0,0.0,80,0.00,,,0.00,Wunderground v.1.15,2013-06-09 07:53:00,
2013-06-09 02:56:00,69.3,62.9,29.72,SW,221,0.0,0.0,80,0.00,,,0.00,Wunderground v.1.15,2013-06-09 07:56:00,
2013-06-09 02:57:00,69.3,62.9,29.72,SW,221,0.0,0.0,80,0.00,,,0.00,Wunderground v.1.15,2013-06-09 07:57:00,
2013-06-09 02:58:00,69.3,62.9,29.72,SW,221,0.0,0.0,80,0.00,,,0.00,Wunderground v.1.15,2013-06-09 07:58:00,
2013-06-09 02:59:00,69.4,62.6,29.72,SW,221,0.0,1.0,79,0.00,,,0.00,Wunderground v.1.15,2013-06-09 07:59:00,
2013-06-09 03:01:00,69.4,62.2,29.72,SW,221,0.0,1.0,78,0.00,,,0.00,Wunderground v.1.15,2013-06-09 08:01:00,
2013-06-09 03:02:00,69.4,62.2,29.72,SW,221,0.0,1.0,78,0.00,,,0.00,Wunderground v.1.15,2013-06-09 08:02:00,
2013-06-09 03:03:00,69.5,62.7,29.72,SW,221,0.0,1.0,79,0.00,,,0.00,Wunderground v.1.15,2013-06-09 08:03:00,
2013-06-09 03:04:00,69.5,62.3,29.72,SW,221,0.0,0.0,78,0.00,,,0.00,Wunderground v.1.15,2013-06-09 08:04:00,
2013-06-09 03:07:00,69.6,62.4,29.71,SW,221,0.0,0.0,78,0.00,,,0.00,Wunderground v.1.15,2013-06-09 08:07:00,
2013-06-09 03:08:00,69.7,63.3,29.71,SW,221,0.0,0.0,80,0.00,,,0.00,Wunderground v.1.15,2013-06-09 08:08:00,
2013-06-09 03:09:00,69.7,63.3,29.71,SW,221,0.0,0.0,80,0.00,,,0.00,Wunderground v.1.15,2013-06-09 08:09:00,
2013-06-09 03:10:00,69.7,63.3,29.71,SW,221,0.0,0.0,80,0.00,,,0.00,Wunderground v.1.15,2013-06-09 08:10:00,
2013-06-09 03:12:00,69.7,62.9,29.71,SW,221,0.0,0.0,79,0.00,,,0.00,Wunderground v.1.15,2013-06-09 08:12:00,
2013-06-09 03:13:00,69.7,62.5,29.71,SW,221,0.0,0.0,78,0.00,,,0.00,Wunderground v.1.15,2013-06-09 08:13:00,
2013-06-09 03:14:00,69.7,62.2,29.71,SW,221,0.0,0.0,77,0.00,,,0.00,Wunderground v.1.15,2013-06-09 08:14:00,
2013-06-09 03:15:00,69.7,62.2,29.71,SW,221,3.0,3.0,77,0.00,,,0.00,Wunderground v.1.15,2013-06-09 08:15:00,
2013-06-09 03:18:00,69.8,61.9,29.71,South,184,0.0,4.0,76,0.00,,,0.00,Wunderground v.1.15,2013-06-09 08:18:00,
2013-06-09 03:20:00,70.0,62.1,29.71,South,184,0.0,4.0,76,0.00,,,0.00,Wunderground v.1.15,2013-06-09 08:20:00,
2013-06-09 03:21:00,70.0,62.1,29.70,South,184,0.0,4.0,76,0.00,,,0.00,Wunderground v.1.15,2013-06-09 08:21:00,
2013-06-09 03:24:00,70.1,61.8,29.70,South,184,2.0,2.0,75,0.00,,,0.00,Wunderground v.1.15,2013-06-09 08:24:00,
2013-06-09 03:25:00,70.2,61.9,29.70,South,184,0.0,2.0,75,0.00,,,0.00,Wunderground v.1.15,2013-06-09 08:25:00,
2013-06-09 03:26:00,70.2,61.9,29.70,South,184,0.0,2.0,75,0.00,,,0.00,Wunderground v.1.15,2013-06-09 08:26:00,
2013-06-09 03:29:00,70.2,61.9,29.70,South,184,1.0,3.0,75,0.00,,,0.00,Wunderground v.1.15,2013-06-09 08:29:00,
2013-06-09 03:30:00,70.2,61.9,29.70,South,184,2.0,3.0,75,0.00,,,0.00,Wunderground v.1.15,2013-06-09 08:30:00,
2013-06-09 03:31:00,70.2,61.9,29.70,South,184,0.0,3.0,75,0.00,,,0.00,Wunderground v.1.15,2013-06-09 08:31:00,
2013-06-09 03:32:00,70.2,61.9,29.70,South,185,3.0,3.0,75,0.00,,,0.00,Wunderground v.1.15,2013-06-09 08:32:00,
2013-06-09 03:34:00,70.2,61.9,29.70,SSW,192,4.0,4.0,75,0.00,,,0.00,Wunderground v.1.15,2013-06-09 08:34:00,
2013-06-09 03:36:00,70.2,62.3,29.70,South,186,2.0,4.0,76,0.00,,,0.00,Wunderground v.1.15,2013-06-09 08:36:00,
2013-06-09 03:37:00,70.2,62.3,29.70,South,184,1.0,4.0,76,0.00,,,0.00,Wunderground v.1.15,2013-06-09 08:37:00,
2013-06-09 03:40:00,70.2,62.3,29.70,South,186,1.0,4.0,76,0.00,,,0.00,Wunderground v.1.15,2013-06-09 08:40:00,
2013-06-09 03:41:00,70.2,62.3,29.70,South,184,4.0,4.0,76,0.00,,,0.00,Wunderground v.1.15,2013-06-09 08:41:00,
2013-06-09 03:42:00,70.2,62.3,29.70,South,190,1.0,4.0,76,0.00,,,0.00,Wunderground v.1.15,2013-06-09 08:42:00,
2013-06-09 03:43:00,70.2,62.3,29.70,South,190,1.0,4.0,76,0.00,,,0.00,Wunderground v.1.15,2013-06-09 08:43:00,
2013-06-09 03:45:00,70.2,62.3,29.70,South,190,2.0,3.0,76,0.00,,,0.00,Wunderground v.1.15,2013-06-09 08:45:00,
2013-06-09 03:47:00,70.2,62.3,29.70,South,190,2.0,4.0,76,0.00,,,0.00,Wunderground v.1.15,2013-06-09 08:47:00,
2013-06-09 03:48:00,70.2,62.3,29.70,South,190,2.0,4.0,76,0.00,,,0.00,Wunderground v.1.15,2013-06-09 08:48:00,
2013-06-09 03:50:00,70.2,62.3,29.70,South,190,2.0,4.0,76,0.00,,,0.00,Wunderground v.1.15,2013-06-09 08:50:00,
2013-06-09 03:53:00,70.2,62.3,29.70,South,173,1.0,4.0,76,0.00,,,0.00,Wunderground v.1.15,2013-06-09 08:53:00,
2013-06-09 03:55:00,70.2,62.6,29.70,South,173,0.0,2.0,77,0.00,,,0.00,Wunderground v.1.15,2013-06-09 08:55:00,
2013-06-09 03:56:00,70.2,62.6,29.70,South,183,3.0,3.0,77,0.00,,,0.00,Wunderground v.1.15,2013-06-09 08:56:00,
2013-06-09 03:58:00,70.3,62.4,29.70,South,172,3.0,5.0,76,0.00,,,0.00,Wunderground v.1.15,2013-06-09 08:58:00,
2013-06-09 04:00:00,70.3,62.4,29.70,South,191,0.0,5.0,76,0.00,,,0.00,Wunderground v.1.15,2013-06-09 09:00:00,
2013-06-09 04:01:00,70.3,62.7,29.70,South,191,0.0,5.0,77,0.00,,,0.00,Wunderground v.1.15,2013-06-09 09:01:00,
2013-06-09 04:03:00,70.3,62.4,29.70,South,191,1.0,5.0,76,0.00,,,0.00,Wunderground v.1.15,2013-06-09 09:03:00,
2013-06-09 04:04:00,70.3,62.4,29.70,South,191,0.0,1.0,76,0.00,,,0.00,Wunderground v.1.15,2013-06-09 09:04:00,
2013-06-09 04:06:00,70.3,62.7,29.70,South,191,0.0,1.0,77,0.00,,,0.00,Wunderground v.1.15,2013-06-09 09:06:00,
2013-06-09 04:07:00,70.3,62.7,29.70,South,191,0.0,1.0,77,0.00,,,0.00,Wunderground v.1.15,2013-06-09 09:07:00,
2013-06-09 04:08:00,70.3,62.7,29.70,South,191,0.0,1.0,77,0.00,,,0.00,Wunderground v.1.15,2013-06-09 09:08:00,
2013-06-09 04:09:00,70.3,62.7,29.70,South,191,0.0,1.0,77,0.00,,,0.00,Wunderground v.1.15,2013-06-09 09:09:00,
2013-06-09 04:10:00,70.3,62.7,29.70,South,191,0.0,1.0,77,0.00,,,0.00,Wunderground v.1.15,2013-06-09 09:10:00,
2013-06-09 04:11:00,70.2,62.6,29.71,South,191,0.0,1.0,77,0.00,,,0.00,Wunderground v.1.15,2013-06-09 09:11:00,
2013-06-09 04:12:00,70.2,62.6,29.71,South,191,0.0,1.0,77,0.00,,,0.00,Wunderground v.1.15,2013-06-09 09:12:00,
2013-06-09 04:13:00,70.2,62.6,29.71,South,191,0.0,1.0,77,0.00,,,0.00,Wunderground v.1.15,2013-06-09 09:13:00,
2013-06-09 04:15:00,70.1,62.6,29.71,South,191,0.0,0.0,77,0.00,,,0.00,Wunderground v.1.15,2013-06-09 09:15:00,
2013-06-09 04:18:00,70.1,63.3,29.71,South,191,0.0,0.0,79,0.00,,,0.00,Wunderground v.1.15,2013-06-09 09:18:00,
2013-06-09 04:20:00,70.0,63.2,29.71,South,191,0.0,0.0,79,0.00,,,0.00,Wunderground v.1.15,2013-06-09 09:20:00,
2013-06-09 04:23:00,69.8,63.0,29.70,South,191,0.0,0.0,79,0.00,,,0.00,Wunderground v.1.15,2013-06-09 09:23:00,
2013-06-09 04:24:00,69.7,62.9,29.71,South,190,4.0,4.0,79,0.00,,,0.00,Wunderground v.1.15,2013-06-09 09:24:00,
2013-06-09 04:25:00,69.7,62.5,29.70,South,190,0.0,4.0,78,0.00,,,0.00,Wunderground v.1.15,2013-06-09 09:25:00,
2013-06-09 04:26:00,69.7,62.5,29.70,South,178,2.0,4.0,78,0.00,,,0.00,Wunderground v.1.15,2013-06-09 09:26:00,
2013-06-09 04:27:00,69.7,62.5,29.70,South,178,0.0,4.0,78,0.00,,,0.00,Wunderground v.1.15,2013-06-09 09:27:00,
2013-06-09 04:28:00,69.6,62.4,29.70,South,178,0.0,4.0,78,0.00,,,0.00,Wunderground v.1.15,2013-06-09 09:28:00,
2013-06-09 04:29:00,69.6,62.4,29.70,South,178,0.0,4.0,78,0.00,,,0.00,Wunderground v.1.15,2013-06-09 09:29:00,
2013-06-09 04:31:00,69.6,62.4,29.70,South,178,0.0,4.0,78,0.00,,,0.00,Wunderground v.1.15,2013-06-09 09:31:00,
2013-06-09 04:32:00,69.6,62.4,29.70,South,178,1.0,4.0,78,0.00,,,0.00,Wunderground v.1.15,2013-06-09 09:32:00,
2013-06-09 04:34:00,69.6,62.8,29.70,South,183,1.0,1.0,79,0.00,,,0.00,Wunderground v.1.15,2013-06-09 09:34:00,
2013-06-09 04:36:00,69.6,62.8,29.70,South,184,0.0,2.0,79,0.00,,,0.00,Wunderground v.1.15,2013-06-09 09:36:00,
2013-06-09 04:37:00,69.5,62.7,29.70,South,184,1.0,2.0,79,0.00,,,0.00,Wunderground v.1.15,2013-06-09 09:37:00,
2013-06-09 04:39:00,69.5,62.7,29.70,South,184,0.0,3.0,79,0.00,,,0.00,Wunderground v.1.15,2013-06-09 09:39:00,
2013-06-09 04:40:00,69.5,62.7,29.70,South,184,0.0,3.0,79,0.00,,,0.00,Wunderground v.1.15,2013-06-09 09:40:00,
2013-06-09 04:42:00,69.5,62.7,29.70,South,184,0.0,3.0,79,0.00,,,0.00,Wunderground v.1.15,2013-06-09 09:42:00,
2013-06-09 04:44:00,69.4,63.0,29.70,South,178,5.0,7.0,80,0.00,,,0.00,Wunderground v.1.15,2013-06-09 09:44:00,
2013-06-09 04:45:00,69.4,63.0,29.70,South,182,4.0,7.0,80,0.00,,,0.00,Wunderground v.1.15,2013-06-09 09:45:00,
2013-06-09 04:47:00,69.4,63.0,29.70,South,188,1.0,7.0,80,0.00,,,0.00,Wunderground v.1.15,2013-06-09 09:47:00,
2013-06-09 04:48:00,69.4,63.0,29.70,South,188,1.0,7.0,80,0.00,,,0.00,Wunderground v.1.15,2013-06-09 09:48:00,
2013-06-09 04:50:00,69.4,63.0,29.70,South,188,1.0,7.0,80,0.00,,,0.00,Wunderground v.1.15,2013-06-09 09:50:00,
2013-06-09 04:52:00,69.2,62.8,29.70,South,187,0.0,7.0,80,0.00,,,0.00,Wunderground v.1.15,2013-06-09 09:52:00,
2013-06-09 04:53:00,69.2,62.8,29.70,South,188,2.0,7.0,80,0.00,,,0.00,Wunderground v.1.15,2013-06-09 09:53:00,
2013-06-09 04:55:00,69.2,62.8,29.70,South,187,0.0,2.0,80,0.00,,,0.00,Wunderground v.1.15,2013-06-09 09:55:00,
2013-06-09 04:57:00,69.1,63.0,29.70,South,187,0.0,2.0,81,0.00,,,0.00,Wunderground v.1.15,2013-06-09 09:57:00,
2013-06-09 04:58:00,69.1,63.0,29.70,South,188,1.0,3.0,81,0.00,,,0.00,Wunderground v.1.15,2013-06-09 09:58:00,
2013-06-09 04:59:00,69.0,62.9,29.70,South,188,0.0,3.0,81,0.00,,,0.00,Wunderground v.1.15,2013-06-09 09:59:00,
2013-06-09 05:01:00,69.0,62.9,29.70,South,188,0.0,3.0,81,0.00,,,0.00,Wunderground v.1.15,2013-06-09 10:01:00,
2013-06-09 05:03:00,69.0,62.9,29.70,South,188,0.0,3.0,81,0.00,,,0.00,Wunderground v.1.15,2013-06-09 10:03:00,
2013-06-09 05:04:00,68.9,62.8,29.70,South,187,0.0,0.0,81,0.00,,,0.00,Wunderground v.1.15,2013-06-09 10:04:00,
2013-06-09 05:05:00,68.9,62.8,29.70,South,188,0.0,0.0,81,0.00,,,0.00,Wunderground v.1.15,2013-06-09 10:05:00,
2013-06-09 05:06:00,68.9,63.2,29.70,South,188,0.0,0.0,82,0.00,,,0.00,Wunderground v.1.15,2013-06-09 10:06:00,
2013-06-09 05:08:00,68.8,63.1,29.70,South,188,0.0,0.0,82,0.00,,,0.00,Wunderground v.1.15,2013-06-09 10:08:00,
2013-06-09 05:10:00,68.8,63.1,29.70,South,188,0.0,0.0,82,0.00,,,0.00,Wunderground v.1.15,2013-06-09 10:10:00,
2013-06-09 05:11:00,68.8,63.1,29.70,South,188,0.0,0.0,82,0.00,,,0.00,Wunderground v.1.15,2013-06-09 10:11:00,
2013-06-09 05:13:00,68.7,63.0,29.70,South,187,0.0,0.0,82,0.00,,,0.00,Wunderground v.1.15,2013-06-09 10:13:00,
2013-06-09 05:15:00,68.6,62.9,29.70,South,188,0.0,0.0,82,0.00,,,0.00,Wunderground v.1.15,2013-06-09 10:15:00,
2013-06-09 05:16:00,68.6,62.9,29.70,South,188,0.0,0.0,82,0.00,,,0.00,Wunderground v.1.15,2013-06-09 10:16:00,
2013-06-09 05:18:00,68.5,63.1,29.70,South,188,0.0,0.0,83,0.00,,,0.00,Wunderground v.1.15,2013-06-09 10:18:00,
2013-06-09 05:21:00,68.4,63.0,29.70,South,188,0.0,0.0,83,0.00,,,0.00,Wunderground v.1.15,2013-06-09 10:21:00,
2013-06-09 05:22:00,68.5,63.1,29.70,South,188,0.0,0.0,83,0.00,,,0.00,Wunderground v.1.15,2013-06-09 10:22:00,
2013-06-09 05:23:00,68.4,63.0,29.70,South,187,0.0,0.0,83,0.00,,,0.00,Wunderground v.1.15,2013-06-09 10:23:00,
2013-06-09 05:26:00,68.3,63.3,29.70,South,183,0.0,0.0,84,0.00,,,0.00,Wunderground v.1.15,2013-06-09 10:26:00,
2013-06-09 05:27:00,68.3,63.3,29.70,South,183,0.0,0.0,84,0.00,,,0.00,Wunderground v.1.15,2013-06-09 10:27:00,
2013-06-09 05:28:00,68.2,63.2,29.70,South,188,0.0,0.0,84,0.00,,,0.00,Wunderground v.1.15,2013-06-09 10:28:00,
2013-06-09 05:29:00,68.2,63.2,29.70,South,188,0.0,0.0,84,0.00,,,0.00,Wunderground v.1.15,2013-06-09 10:29:00,
2013-06-09 05:32:00,68.1,63.1,29.70,South,188,0.0,0.0,84,0.00,,,0.00,Wunderground v.1.15,2013-06-09 10:32:00,
2013-06-09 05:33:00,68.1,63.1,29.70,SSE,158,0.0,0.0,84,0.00,,,0.00,Wunderground v.1.15,2013-06-09 10:33:00,
2013-06-09 05:34:00,68.1,63.1,29.70,SSE,157,0.0,0.0,84,0.00,,,0.00,Wunderground v.1.15,2013-06-09 10:34:00,
2013-06-09 05:37:00,68.1,63.4,29.70,SSE,158,0.0,0.0,85,0.00,,,0.00,Wunderground v.1.15,2013-06-09 10:37:00,
2013-06-09 05:38:00,68.1,63.4,29.70,SSE,157,0.0,0.0,85,0.00,,,0.00,Wunderground v.1.15,2013-06-09 10:38:00,
2013-06-09 05:39:00,68.1,63.4,29.70,SSE,157,0.0,0.0,85,0.00,,,0.00,Wunderground v.1.15,2013-06-09 10:39:00,
2013-06-09 05:42:00,68.0,63.3,29.69,SSE,158,0.0,0.0,85,0.00,,,0.00,Wunderground v.1.15,2013-06-09 10:42:00,
2013-06-09 05:43:00,68.1,63.4,29.69,SSE,157,0.0,0.0,85,0.00,,,0.00,Wunderground v.1.15,2013-06-09 10:43:00,
2013-06-09 05:44:00,68.0,63.3,29.69,SSE,157,0.0,2.0,85,0.00,,,0.00,Wunderground v.1.15,2013-06-09 10:44:00,
2013-06-09 05:45:00,68.1,63.4,29.69,SSE,157,1.0,2.0,85,0.00,,,0.00,Wunderground v.1.15,2013-06-09 10:45:00,
2013-06-09 05:48:00,68.0,63.3,29.69,SSE,158,2.0,2.0,85,0.00,,,0.00,Wunderground v.1.15,2013-06-09 10:48:00,
2013-06-09 05:49:00,68.1,63.4,29.69,SSE,158,1.0,2.0,85,0.00,,,0.00,Wunderground v.1.15,2013-06-09 10:49:00,
2013-06-09 05:51:00,68.1,63.4,29.69,SSE,158,1.0,2.0,85,0.00,,,0.00,Wunderground v.1.15,2013-06-09 10:51:00,
2013-06-09 05:53:00,68.0,63.3,29.69,SSE,158,0.0,2.0,85,0.00,,,0.00,Wunderground v.1.15,2013-06-09 10:53:00,
2013-06-09 05:54:00,68.0,63.3,29.69,SSE,158,0.0,1.0,85,0.00,,,0.00,Wunderground v.1.15,2013-06-09 10:54:00,
2013-06-09 05:55:00,68.0,63.3,29.69,SSE,158,0.0,1.0,85,0.00,,,0.00,Wunderground v.1.15,2013-06-09 10:55:00,
2013-06-09 05:56:00,68.0,63.3,29.69,SSE,157,0.0,1.0,85,0.00,,,0.00,Wunderground v.1.15,2013-06-09 10:56:00,
2013-06-09 05:59:00,68.0,63.3,29.70,SSE,158,0.0,1.0,85,0.00,,,0.00,Wunderground v.1.15,2013-06-09 10:59:00,
2013-06-09 06:00:00,68.0,63.3,29.70,SSE,158,0.0,1.0,85,0.00,,,0.00,Wunderground v.1.15,2013-06-09 11:00:00,
2013-06-09 06:01:00,68.0,63.7,29.70,SSE,157,0.0,1.0,86,0.00,,,0.00,Wunderground v.1.15,2013-06-09 11:01:00,
2013-06-09 06:02:00,68.0,63.7,29.70,SSE,157,0.0,1.0,86,0.00,,,0.00,Wunderground v.1.15,2013-06-09 11:02:00,
2013-06-09 06:04:00,68.0,63.7,29.70,SSE,157,0.0,0.0,86,0.00,,,0.00,Wunderground v.1.15,2013-06-09 11:04:00,
2013-06-09 06:06:00,68.0,63.7,29.69,SSE,158,0.0,0.0,86,0.00,,,0.00,Wunderground v.1.15,2013-06-09 11:06:00,
2013-06-09 06:07:00,68.0,63.7,29.69,SSE,158,0.0,0.0,86,0.00,,,0.00,Wunderground v.1.15,2013-06-09 11:07:00,
2013-06-09 06:09:00,68.0,63.7,29.69,SSE,157,0.0,0.0,86,0.00,,,0.00,Wunderground v.1.15,2013-06-09 11:09:00,
2013-06-09 06:10:00,68.0,63.7,29.69,SSE,158,0.0,0.0,86,0.00,,,0.00,Wunderground v.1.15,2013-06-09 11:10:00,
2013-06-09 06:11:00,68.0,63.7,29.69,SSE,158,0.0,0.0,86,0.00,,,0.00,Wunderground v.1.15,2013-06-09 11:11:00,
2013-06-09 06:12:00,68.0,63.7,29.69,SSE,157,0.0,0.0,86,0.00,,,0.00,Wunderground v.1.15,2013-06-09 11:12:00,
2013-06-09 06:13:00,68.0,63.7,29.70,SSE,158,0.0,0.0,86,0.00,,,0.00,Wunderground v.1.15,2013-06-09 11:13:00,
2013-06-09 06:14:00,68.0,63.7,29.70,SSE,158,0.0,0.0,86,0.00,,,0.00,Wunderground v.1.15,2013-06-09 11:14:00,
2013-06-09 06:15:00,68.0,63.7,29.70,SSE,158,0.0,0.0,86,0.00,,,0.00,Wunderground v.1.15,2013-06-09 11:15:00,
2013-06-09 06:16:00,68.0,63.7,29.70,SSE,158,0.0,0.0,86,0.00,,,0.00,Wunderground v.1.15,2013-06-09 11:16:00,
2013-06-09 06:17:00,68.0,63.7,29.69,SSE,158,0.0,0.0,86,0.00,,,0.00,Wunderground v.1.15,2013-06-09 11:17:00,
2013-06-09 06:18:00,67.9,63.9,29.69,SSE,157,0.0,0.0,87,0.00,,,0.00,Wunderground v.1.15,2013-06-09 11:18:00,
2013-06-09 06:20:00,67.9,63.9,29.69,SSE,157,0.0,0.0,87,0.00,,,0.00,Wunderground v.1.15,2013-06-09 11:20:00,
2013-06-09 06:22:00,67.9,63.9,29.70,SSE,158,0.0,0.0,87,0.00,,,0.00,Wunderground v.1.15,2013-06-09 11:22:00,
2013-06-09 06:23:00,67.9,63.9,29.69,SSE,157,0.0,0.0,87,0.00,,,0.00,Wunderground v.1.15,2013-06-09 11:23:00,
2013-06-09 06:26:00,67.8,63.8,29.70,SSE,158,0.0,0.0,87,0.00,,,0.00,Wunderground v.1.15,2013-06-09 11:26:00,
2013-06-09 06:27:00,67.8,63.8,29.70,SSE,158,0.0,0.0,87,0.00,,,0.00,Wunderground v.1.15,2013-06-09 11:27:00,
2013-06-09 06:28:00,67.7,63.7,29.70,SSE,157,0.0,0.0,87,0.00,,,0.00,Wunderground v.1.15,2013-06-09 11:28:00,
2013-06-09 06:32:00,67.7,64.0,29.70,SSE,158,1.0,2.0,88,0.00,,,0.00,Wunderground v.1.15,2013-06-09 11:32:00,
2013-06-09 06:33:00,67.7,64.0,29.69,SSE,158,0.0,2.0,88,0.00,,,0.00,Wunderground v.1.15,2013-06-09 11:33:00,
2013-06-09 06:37:00,67.8,64.1,29.69,SE,125,1.0,2.0,88,0.00,,,0.00,Wunderground v.1.15,2013-06-09 11:37:00,
2013-06-09 06:38:00,67.9,64.2,29.69,ESE,123,1.0,2.0,88,0.00,,,0.00,Wunderground v.1.15,2013-06-09 11:38:00,
2013-06-09 06:42:00,68.0,64.3,29.69,South,188,2.0,4.0,88,0.00,,,0.00,Wunderground v.1.15,2013-06-09 11:42:00,
2013-06-09 06:43:00,68.1,64.4,29.69,South,187,2.0,4.0,88,0.00,,,0.00,Wunderground v.1.15,2013-06-09 11:43:00,
2013-06-09 06:44:00,68.1,64.4,29.69,South,188,2.0,2.0,88,0.00,,,0.00,Wunderground v.1.15,2013-06-09 11:44:00,
2013-06-09 06:47:00,68.3,64.6,29.70,South,188,1.0,3.0,88,0.00,,,0.00,Wunderground v.1.15,2013-06-09 11:47:00,
2013-06-09 06:48:00,68.3,64.6,29.70,South,188,0.0,3.0,88,0.00,,,0.00,Wunderground v.1.15,2013-06-09 11:48:00,
2013-06-09 06:50:00,68.4,64.7,29.70,South,188,0.0,3.0,88,0.00,,,0.00,Wunderground v.1.15,2013-06-09 11:50:00,
2013-06-09 06:53:00,68.5,64.8,29.70,South,188,0.0,3.0,88,0.00,,,0.00,Wunderground v.1.15,2013-06-09 11:53:00,
2013-06-09 06:54:00,68.5,64.8,29.70,South,187,1.0,1.0,88,0.00,,,0.00,Wunderground v.1.15,2013-06-09 11:54:00,
2013-06-09 06:55:00,68.5,64.8,29.70,South,188,0.0,1.0,88,0.00,,,0.00,Wunderground v.1.15,2013-06-09 11:55:00,
2013-06-09 06:58:00,68.6,64.9,29.70,South,188,3.0,3.0,88,0.00,,,0.00,Wunderground v.1.15,2013-06-09 11:58:00,
2013-06-09 07:00:00,68.7,65.0,29.70,South,188,0.0,3.0,88,0.00,,,0.00,Wunderground v.1.15,2013-06-09 12:00:00,
2013-06-09 07:03:00,68.8,65.1,29.70,South,189,0.0,3.0,88,0.00,,,0.00,Wunderground v.1.15,2013-06-09 12:03:00,
2013-06-09 07:04:00,68.8,65.1,29.70,South,169,0.0,1.0,88,0.00,,,0.00,Wunderground v.1.15,2013-06-09 12:04:00,
2013-06-09 07:05:00,68.8,65.1,29.70,South,173,1.0,3.0,88,0.00,,,0.00,Wunderground v.1.15,2013-06-09 12:05:00,
2013-06-09 07:08:00,68.9,65.2,29.70,South,176,3.0,4.0,88,0.00,,,0.00,Wunderground v.1.15,2013-06-09 12:08:00,
2013-06-09 07:09:00,68.9,65.2,29.70,South,176,2.0,4.0,88,0.00,,,0.00,Wunderground v.1.15,2013-06-09 12:09:00,
2013-06-09 07:10:00,68.9,65.2,29.70,South,175,1.0,4.0,88,0.00,,,0.00,Wunderground v.1.15,2013-06-09 12:10:00,
2013-06-09 07:11:00,69.0,65.3,29.70,South,175,1.0,4.0,88,0.00,,,0.00,Wunderground v.1.15,2013-06-09 12:11:00,
2013-06-09 07:14:00,69.0,65.3,29.70,South,175,0.0,1.0,88,0.00,,,0.00,Wunderground v.1.15,2013-06-09 12:14:00,
2013-06-09 07:15:00,69.0,65.3,29.70,South,175,2.0,2.0,88,0.00,,,0.00,Wunderground v.1.15,2013-06-09 12:15:00,
2013-06-09 07:16:00,69.1,65.7,29.70,South,175,0.0,2.0,89,0.00,,,0.00,Wunderground v.1.15,2013-06-09 12:16:00,
2013-06-09 07:19:00,69.1,65.4,29.70,South,175,0.0,2.0,88,0.00,,,0.00,Wunderground v.1.15,2013-06-09 12:19:00,
2013-06-09 07:20:00,69.2,65.5,29.70,South,175,0.0,2.0,88,0.00,,,0.00,Wunderground v.1.15,2013-06-09 12:20:00,
2013-06-09 07:21:00,69.2,65.5,29.70,South,175,0.0,2.0,88,0.00,,,0.00,Wunderground v.1.15,2013-06-09 12:21:00,
2013-06-09 07:24:00,69.2,65.8,29.70,South,179,0.0,0.0,89,0.00,,,0.00,Wunderground v.1.15,2013-06-09 12:24:00,
2013-06-09 07:25:00,69.3,65.9,29.70,South,180,0.0,0.0,89,0.00,,,0.00,Wunderground v.1.15,2013-06-09 12:25:00,
2013-06-09 07:27:00,69.3,65.9,29.71,SSE,148,2.0,3.0,89,0.00,,,0.00,Wunderground v.1.15,2013-06-09 12:27:00,
2013-06-09 07:28:00,69.3,65.9,29.71,SSE,148,1.0,3.0,89,0.00,,,0.00,Wunderground v.1.15,2013-06-09 12:28:00,
2013-06-09 07:29:00,69.4,66.0,29.71,SSE,153,2.0,4.0,89,0.00,,,0.00,Wunderground v.1.15,2013-06-09 12:29:00,
2013-06-09 07:30:00,69.4,66.0,29.71,SSE,159,2.0,4.0,89,0.00,,,0.00,Wunderground v.1.15,2013-06-09 12:30:00,
2013-06-09 07:31:00,69.4,66.0,29.71,SSE,161,1.0,4.0,89,0.00,,,0.00,Wunderground v.1.15,2013-06-09 12:31:00,
2013-06-09 07:32:00,69.5,66.1,29.71,South,176,2.0,4.0,89,0.00,,,0.00,Wunderground v.1.15,2013-06-09 12:32:00,
2013-06-09 07:33:00,69.5,66.1,29.71,South,176,3.0,4.0,89,0.00,,,0.00,Wunderground v.1.15,2013-06-09 12:33:00,
2013-06-09 07:35:00,69.5,66.1,29.71,South,178,2.0,3.0,89,0.00,,,0.00,Wunderground v.1.15,2013-06-09 12:35:00,
2013-06-09 07:37:00,69.6,66.2,29.70,SSW,196,3.0,4.0,89,0.00,,,0.00,Wunderground v.1.15,2013-06-09 12:37:00,
2013-06-09 07:38:00,69.7,66.3,29.70,South,177,2.0,4.0,89,0.00,,,0.00,Wunderground v.1.15,2013-06-09 12:38:00,
2013-06-09 07:40:00,69.7,66.3,29.71,South,178,1.0,4.0,89,0.00,,,0.00,Wunderground v.1.15,2013-06-09 12:40:00,
2013-06-09 07:41:00,69.7,66.3,29.71,South,173,1.0,4.0,89,0.00,,,0.00,Wunderground v.1.15,2013-06-09 12:41:00,
2013-06-09 07:42:00,69.8,66.4,29.71,South,173,2.0,4.0,89,0.00,,,0.00,Wunderground v.1.15,2013-06-09 12:42:00,
2013-06-09 07:43:00,69.8,66.4,29.71,South,173,2.0,4.0,89,0.00,,,0.00,Wunderground v.1.15,2013-06-09 12:43:00,
2013-06-09 07:45:00,69.9,66.5,29.71,South,184,2.0,3.0,89,0.00,,,0.00,Wunderground v.1.15,2013-06-09 12:45:00,
2013-06-09 07:47:00,70.0,66.6,29.71,South,180,5.0,5.0,89,0.00,,,0.00,Wunderground v.1.15,2013-06-09 12:47:00,
2013-06-09 07:48:00,70.0,66.6,29.71,SSW,200,4.0,5.0,89,0.00,,,0.00,Wunderground v.1.15,2013-06-09 12:48:00,
2013-06-09 07:49:00,70.1,66.7,29.71,South,172,1.0,5.0,89,0.00,,,0.00,Wunderground v.1.15,2013-06-09 12:49:00,
2013-06-09 07:51:00,70.1,66.7,29.71,South,175,3.0,5.0,89,0.00,,,0.00,Wunderground v.1.15,2013-06-09 12:51:00,
2013-06-09 07:52:00,70.2,66.8,29.71,South,177,2.0,5.0,89,0.00,,,0.00,Wunderground v.1.15,2013-06-09 12:52:00,
2013-06-09 07:53:00,70.2,66.8,29.71,SSE,162,3.0,5.0,89,0.00,,,0.00,Wunderground v.1.15,2013-06-09 12:53:00,
2013-06-09 07:54:00,70.3,66.9,29.71,South,174,2.0,3.0,89,0.00,,,0.00,Wunderground v.1.15,2013-06-09 12:54:00,
2013-06-09 07:56:00,70.3,66.9,29.71,South,178,2.0,5.0,89,0.00,,,0.00,Wunderground v.1.15,2013-06-09 12:56:00,
2013-06-09 07:57:00,70.3,66.9,29.71,South,188,3.0,5.0,89,0.00,,,0.00,Wunderground v.1.15,2013-06-09 12:57:00,
2013-06-09 07:58:00,70.4,67.0,29.71,SSW,202,3.0,5.0,89,0.00,,,0.00,Wunderground v.1.15,2013-06-09 12:58:00,
2013-06-09 07:59:00,70.4,67.0,29.71,SSE,165,3.0,5.0,89,0.00,,,0.00,Wunderground v.1.15,2013-06-09 12:59:00,
2013-06-09 08:01:00,70.5,67.4,29.71,SSE,163,1.0,5.0,90,0.00,,,0.00,Wunderground v.1.15,2013-06-09 13:01:00,
2013-06-09 08:03:00,70.6,67.5,29.71,SSE,167,2.0,5.0,90,0.00,,,0.00,Wunderground v.1.15,2013-06-09 13:03:00,
2013-06-09 08:04:00,70.8,67.7,29.71,South,181,2.0,3.0,90,0.00,,,0.00,Wunderground v.1.15,2013-06-09 13:04:00,
2013-06-09 08:06:00,71.0,67.9,29.70,South,181,4.0,5.0,90,0.00,,,0.00,Wunderground v.1.15,2013-06-09 13:06:00,
2013-06-09 08:08:00,71.1,68.0,29.70,South,173,3.0,5.0,90,0.00,,,0.00,Wunderground v.1.15,2013-06-09 13:08:00,
2013-06-09 08:10:00,71.3,68.2,29.70,South,180,3.0,5.0,90,0.00,,,0.00,Wunderground v.1.15,2013-06-09 13:10:00,
2013-06-09 08:12:00,71.5,68.1,29.71,South,183,4.0,7.0,89,0.00,,,0.00,Wunderground v.1.15,2013-06-09 13:12:00,
2013-06-09 08:13:00,71.7,68.0,29.71,South,171,4.0,8.0,88,0.00,,,0.00,Wunderground v.1.15,2013-06-09 13:13:00,
2013-06-09 08:14:00,71.7,68.0,29.71,South,188,4.0,4.0,88,0.00,,,0.00,Wunderground v.1.15,2013-06-09 13:14:00,
2013-06-09 08:15:00,71.8,68.4,29.71,South,173,2.0,5.0,89,0.00,,,0.00,Wunderground v.1.15,2013-06-09 13:15:00,
2013-06-09 08:17:00,72.1,68.7,29.71,South,188,3.0,5.0,89,0.00,,,0.00,Wunderground v.1.15,2013-06-09 13:17:00,
2013-06-09 08:19:00,72.3,68.9,29.71,South,190,4.0,5.0,89,0.00,,,0.00,Wunderground v.1.15,2013-06-09 13:19:00,
2013-06-09 08:20:00,72.3,68.9,29.71,South,182,5.0,5.0,89,0.00,,,0.00,Wunderground v.1.15,2013-06-09 13:20:00,
2013-06-09 08:22:00,72.7,68.9,29.71,SSW,200,5.0,8.0,88,0.00,,,0.00,Wunderground v.1.15,2013-06-09 13:22:00,
2013-06-09 08:24:00,72.9,69.1,29.71,SSW,195,7.0,7.0,88,0.00,,,0.00,Wunderground v.1.15,2013-06-09 13:24:00,
2013-06-09 08:25:00,72.9,69.1,29.71,South,169,6.0,11.0,88,0.00,,,0.00,Wunderground v.1.15,2013-06-09 13:25:00,
2013-06-09 08:28:00,73.3,69.5,29.71,South,186,3.0,11.0,88,0.00,,,0.00,Wunderground v.1.15,2013-06-09 13:28:00,
2013-06-09 08:29:00,73.5,69.7,29.71,SSW,204,4.0,11.0,88,0.00,,,0.00,Wunderground v.1.15,2013-06-09 13:29:00,
2013-06-09 08:30:00,73.6,69.8,29.71,SSW,210,5.0,11.0,88,0.00,,,0.00,Wunderground v.1.15,2013-06-09 13:30:00,
2013-06-09 08:33:00,73.9,69.8,29.71,SSW,196,5.0,11.0,87,0.00,,,0.00,Wunderground v.1.15,2013-06-09 13:33:00,
2013-06-09 08:35:00,74.2,70.1,29.71,South,183,5.0,5.0,87,0.00,,,0.00,Wunderground v.1.15,2013-06-09 13:35:00,
2013-06-09 08:36:00,74.2,69.7,29.71,South,191,7.0,7.0,86,0.00,,,0.00,Wunderground v.1.15,2013-06-09 13:36:00,
2013-06-09 08:38:00,74.4,69.9,29.71,SSE,164,5.0,8.0,86,0.00,,,0.00,Wunderground v.1.15,2013-06-09 13:38:00,
2013-06-09 08:40:00,74.5,69.7,29.71,SSE,167,4.0,8.0,85,0.00,,,0.00,Wunderground v.1.15,2013-06-09 13:40:00,
2013-06-09 08:41:00,74.6,69.8,29.71,South,182,6.0,8.0,85,0.00,,,0.00,Wunderground v.1.15,2013-06-09 13:41:00,
2013-06-09 08:44:00,74.8,70.0,29.71,South,180,3.0,5.0,85,0.00,,,0.00,Wunderground v.1.15,2013-06-09 13:44:00,
2013-06-09 08:45:00,74.8,70.0,29.71,SSW,194,5.0,8.0,85,0.00,,,0.00,Wunderground v.1.15,2013-06-09 13:45:00,
2013-06-09 08:46:00,74.9,70.1,29.71,South,186,2.0,8.0,85,0.00,,,0.00,Wunderground v.1.15,2013-06-09 13:46:00,
2013-06-09 08:47:00,75.0,70.5,29.71,South,173,3.0,8.0,86,0.00,,,0.00,Wunderground v.1.15,2013-06-09 13:47:00,
2013-06-09 08:49:00,75.1,70.3,29.71,South,182,4.0,8.0,85,0.00,,,0.00,Wunderground v.1.15,2013-06-09 13:49:00,
2013-06-09 08:50:00,75.2,70.4,29.71,South,179,2.0,8.0,85,0.00,,,0.00,Wunderground v.1.15,2013-06-09 13:50:00,
2013-06-09 08:52:00,75.2,70.0,29.71,South,187,5.0,8.0,84,0.00,,,0.00,Wunderground v.1.15,2013-06-09 13:52:00,
2013-06-09 08:53:00,75.2,70.0,29.71,South,190,5.0,8.0,84,0.00,,,0.00,Wunderground v.1.15,2013-06-09 13:53:00,
2013-06-09 08:55:00,75.2,70.0,29.71,SSW,196,0.0,5.0,84,0.00,,,0.00,Wunderground v.1.15,2013-06-09 13:55:00,
2013-06-09 08:56:00,75.2,70.0,29.71,South,178,3.0,5.0,84,0.00,,,0.00,Wunderground v.1.15,2013-06-09 13:56:00,
2013-06-09 08:57:00,75.2,70.0,29.71,SSW,213,3.0,5.0,84,0.00,,,0.00,Wunderground v.1.15,2013-06-09 13:57:00,
2013-06-09 08:58:00,75.2,70.0,29.71,SSE,163,2.0,6.0,84,0.00,,,0.00,Wunderground v.1.15,2013-06-09 13:58:00,
2013-06-09 09:00:00,75.2,70.4,29.71,SSE,150,3.0,6.0,85,0.00,,,0.00,Wunderground v.1.15,2013-06-09 14:00:00,
2013-06-09 09:02:00,75.2,70.0,29.71,SSE,156,5.0,6.0,84,0.00,,,0.00,Wunderground v.1.15,2013-06-09 14:02:00,
2013-06-09 09:04:00,75.2,70.0,29.71,South,182,3.0,4.0,84,0.00,,,0.00,Wunderground v.1.15,2013-06-09 14:04:00,
2013-06-09 09:05:00,75.2,70.4,29.71,South,178,5.0,5.0,85,0.00,,,0.00,Wunderground v.1.15,2013-06-09 14:05:00,
2013-06-09 09:07:00,75.2,70.0,29.71,SSW,192,4.0,5.0,84,0.00,,,0.00,Wunderground v.1.15,2013-06-09 14:07:00,
2013-06-09 09:08:00,75.2,70.0,29.71,SSW,192,3.0,5.0,84,0.00,,,0.00,Wunderground v.1.15,2013-06-09 14:08:00,
2013-06-09 09:09:00,75.3,70.5,29.71,SSE,167,2.0,7.0,85,0.00,,,0.00,Wunderground v.1.15,2013-06-09 14:09:00,
2013-06-09 09:10:00,75.4,70.6,29.71,South,185,2.0,7.0,85,0.00,,,0.00,Wunderground v.1.15,2013-06-09 14:10:00,
2013-06-09 09:13:00,75.5,70.3,29.71,South,170,4.0,8.0,84,0.00,,,0.00,Wunderground v.1.15,2013-06-09 14:13:00,
2013-06-09 09:15:00,75.6,70.4,29.71,South,170,6.0,7.0,84,0.00,,,0.00,Wunderground v.1.15,2013-06-09 14:15:00,
2013-06-09 09:18:00,75.6,70.4,29.71,South,181,3.0,7.0,84,0.00,,,0.00,Wunderground v.1.15,2013-06-09 14:18:00,
2013-06-09 09:20:00,75.6,70.4,29.71,South,173,2.0,7.0,84,0.00,,,0.00,Wunderground v.1.15,2013-06-09 14:20:00,
2013-06-09 09:22:00,75.6,70.1,29.71,SSW,200,6.0,7.0,83,0.00,,,0.00,Wunderground v.1.15,2013-06-09 14:22:00,
2013-06-09 09:23:00,75.7,70.2,29.71,SSW,192,4.0,7.0,83,0.00,,,0.00,Wunderground v.1.15,2013-06-09 14:23:00,
2013-06-09 09:26:00,75.8,70.6,29.71,South,178,5.0,5.0,84,0.00,,,0.00,Wunderground v.1.15,2013-06-09 14:26:00,
2013-06-09 09:27:00,75.8,70.3,29.72,South,182,7.0,7.0,83,0.00,,,0.00,Wunderground v.1.15,2013-06-09 14:27:00,
2013-06-09 09:28:00,75.8,69.9,29.71,SSE,163,4.0,7.0,82,0.00,,,0.00,Wunderground v.1.15,2013-06-09 14:28:00,
2013-06-09 09:29:00,75.8,69.9,29.71,SSE,161,4.0,7.0,82,0.00,,,0.00,Wunderground v.1.15,2013-06-09 14:29:00,
2013-06-09 09:31:00,75.9,70.4,29.71,South,169,3.0,7.0,83,0.00,,,0.00,Wunderground v.1.15,2013-06-09 14:31:00,
2013-06-09 09:32:00,75.9,70.4,29.71,SSW,192,6.0,7.0,83,0.00,,,0.00,Wunderground v.1.15,2013-06-09 14:32:00,
2013-06-09 09:33:00,76.0,70.5,29.72,South,173,4.0,7.0,83,0.00,,,0.00,Wunderground v.1.15,2013-06-09 14:33:00,
2013-06-09 09:34:00,76.0,70.5,29.71,South,175,4.0,4.0,83,0.00,,,0.00,Wunderground v.1.15,2013-06-09 14:34:00,
2013-06-09 09:37:00,76.3,70.8,29.71,South,180,5.0,7.0,83,0.00,,,0.00,Wunderground v.1.15,2013-06-09 14:37:00,
2013-06-09 09:39:00,76.5,70.9,29.71,SSE,157,6.0,7.0,83,0.00,,,0.00,Wunderground v.1.15,2013-06-09 14:39:00,
2013-06-09 09:40:00,76.5,70.6,29.71,South,187,6.0,7.0,82,0.00,,,0.00,Wunderground v.1.15,2013-06-09 14:40:00,
2013-06-09 09:42:00,76.8,70.9,29.71,South,182,3.0,8.0,82,0.00,,,0.00,Wunderground v.1.15,2013-06-09 14:42:00,
2013-06-09 09:43:00,76.8,70.5,29.70,South,182,4.0,8.0,81,0.00,,,0.00,Wunderground v.1.15,2013-06-09 14:43:00,
2013-06-09 09:44:00,76.9,70.6,29.71,South,173,4.0,5.0,81,0.00,,,0.00,Wunderground v.1.15,2013-06-09 14:44:00,
2013-06-09 09:46:00,77.1,71.2,29.70,South,179,6.0,9.0,82,0.00,,,0.00,Wunderground v.1.15,2013-06-09 14:46:00,
2013-06-09 09:48:00,77.2,70.9,29.70,SSE,159,4.0,9.0,81,0.00,,,0.00,Wunderground v.1.15,2013-06-09 14:48:00,
2013-06-09 09:49:00,77.3,71.4,29.70,SSE,159,4.0,9.0,82,0.00,,,0.00,Wunderground v.1.15,2013-06-09 14:49:00,
2013-06-09 09:52:00,77.5,70.8,29.70,South,175,7.0,9.0,80,0.00,,,0.00,Wunderground v.1.15,2013-06-09 14:52:00,
2013-06-09 09:53:00,77.5,70.8,29.70,South,189,3.0,10.0,80,0.00,,,0.00,Wunderground v.1.15,2013-06-09 14:53:00,
2013-06-09 09:54:00,77.5,70.8,29.70,South,173,3.0,5.0,80,0.00,,,0.00,Wunderground v.1.15,2013-06-09 14:54:00,
2013-06-09 09:57:00,77.8,71.5,29.71,South,178,2.0,6.0,81,0.00,,,0.00,Wunderground v.1.15,2013-06-09 14:57:00,
2013-06-09 09:59:00,78.0,71.7,29.71,South,187,6.0,8.0,81,0.00,,,0.00,Wunderground v.1.15,2013-06-09 14:59:00,
2013-06-09 10:02:00,78.2,71.5,29.71,South,190,6.0,9.0,80,0.00,,,0.00,Wunderground v.1.15,2013-06-09 15:02:00,
2013-06-09 10:04:00,78.2,70.8,29.71,South,176,3.0,5.0,78,0.00,,,0.00,Wunderground v.1.15,2013-06-09 15:04:00,
2013-06-09 10:05:00,78.3,71.2,29.71,South,180,2.0,6.0,79,0.00,,,0.00,Wunderground v.1.15,2013-06-09 15:05:00,
2013-06-09 10:08:00,78.4,71.3,29.71,South,182,8.0,10.0,79,0.00,,,0.00,Wunderground v.1.15,2013-06-09 15:08:00,
2013-06-09 10:09:00,78.4,71.3,29.71,South,180,4.0,10.0,79,0.00,,,0.00,Wunderground v.1.15,2013-06-09 15:09:00,
2013-06-09 10:10:00,78.5,71.8,29.71,South,180,4.0,10.0,80,0.00,,,0.00,Wunderground v.1.15,2013-06-09 15:10:00,
2013-06-09 10:12:00,78.7,72.0,29.71,SSW,196,5.0,10.0,80,0.00,,,0.00,Wunderground v.1.15,2013-06-09 15:12:00,
2013-06-09 10:13:00,78.7,71.6,29.71,South,175,5.0,10.0,79,0.00,,,0.00,Wunderground v.1.15,2013-06-09 15:13:00,
2013-06-09 10:14:00,78.7,71.6,29.71,South,182,5.0,7.0,79,0.00,,,0.00,Wunderground v.1.15,2013-06-09 15:14:00,
2013-06-09 10:15:00,78.9,71.5,29.71,South,183,6.0,14.0,78,0.00,,,0.00,Wunderground v.1.15,2013-06-09 15:15:00,
2013-06-09 10:18:00,79.0,71.6,29.71,SE,144,6.0,14.0,78,0.00,,,0.00,Wunderground v.1.15,2013-06-09 15:18:00,
2013-06-09 10:19:00,79.0,70.8,29.71,SSE,167,0.0,14.0,76,0.00,,,0.00,Wunderground v.1.15,2013-06-09 15:19:00,
2013-06-09 10:20:00,79.0,70.8,29.71,South,171,8.0,14.0,76,0.00,,,0.00,Wunderground v.1.15,2013-06-09 15:20:00,
2013-06-09 10:21:00,78.9,70.7,29.71,SSE,165,4.0,14.0,76,0.00,,,0.00,Wunderground v.1.15,2013-06-09 15:21:00,
2013-06-09 10:23:00,78.9,71.5,29.71,South,179,1.0,14.0,78,0.00,,,0.00,Wunderground v.1.15,2013-06-09 15:23:00,
2013-06-09 10:24:00,78.9,71.5,29.71,South,174,2.0,5.0,78,0.00,,,0.00,Wunderground v.1.15,2013-06-09 15:24:00,
2013-06-09 10:26:00,78.8,71.4,29.71,South,169,3.0,5.0,78,0.00,,,0.00,Wunderground v.1.15,2013-06-09 15:26:00,
2013-06-09 10:27:00,78.8,71.4,29.71,South,170,2.0,5.0,78,0.00,,,0.00,Wunderground v.1.15,2013-06-09 15:27:00,
2013-06-09 10:29:00,78.8,71.4,29.71,South,174,6.0,8.0,78,0.00,,,0.00,Wunderground v.1.15,2013-06-09 15:29:00,
2013-06-09 10:31:00,78.8,71.0,29.71,South,178,5.0,10.0,77,0.00,,,0.00,Wunderground v.1.15,2013-06-09 15:31:00,
2013-06-09 10:32:00,78.8,71.0,29.71,SSW,203,3.0,10.0,77,0.00,,,0.00,Wunderground v.1.15,2013-06-09 15:32:00,
2013-06-09 10:34:00,79.0,71.6,29.71,ESE,122,0.0,4.0,78,0.00,,,0.00,Wunderground v.1.15,2013-06-09 15:34:00,
2013-06-09 10:35:00,79.1,71.6,29.72,SSW,193,5.0,6.0,78,0.00,,,0.00,Wunderground v.1.15,2013-06-09 15:35:00,
2013-06-09 10:37:00,79.3,71.5,29.71,South,184,0.0,8.0,77,0.00,,,0.00,Wunderground v.1.15,2013-06-09 15:37:00,
2013-06-09 10:38:00,79.3,71.8,29.71,South,184,0.0,8.0,78,0.00,,,0.00,Wunderground v.1.15,2013-06-09 15:38:00,
2013-06-09 10:39:00,79.4,71.9,29.72,South,176,5.0,8.0,78,0.00,,,0.00,Wunderground v.1.15,2013-06-09 15:39:00,
2013-06-09 10:40:00,79.7,72.2,29.71,South,179,0.0,8.0,78,0.00,,,0.00,Wunderground v.1.15,2013-06-09 15:40:00,
2013-06-09 10:43:00,79.9,72.0,29.71,South,173,3.0,8.0,77,0.00,,,0.00,Wunderground v.1.15,2013-06-09 15:43:00,
2013-06-09 10:44:00,80.0,71.4,29.71,SSE,167,4.0,7.0,75,0.00,,,0.00,Wunderground v.1.15,2013-06-09 15:44:00,
2013-06-09 10:45:00,80.0,71.8,29.71,South,173,4.0,7.0,76,0.00,,,0.00,Wunderground v.1.15,2013-06-09 15:45:00,
2013-06-09 10:46:00,79.9,71.3,29.71,SSW,202,6.0,7.0,75,0.00,,,0.00,Wunderground v.1.15,2013-06-09 15:46:00,
2013-06-09 10:48:00,79.9,71.7,29.71,SSW,194,3.0,7.0,76,0.00,,,0.00,Wunderground v.1.15,2013-06-09 15:48:00,
2013-06-09 10:49:00,79.8,71.2,29.71,SSE,161,9.0,9.0,75,0.00,,,0.00,Wunderground v.1.15,2013-06-09 15:49:00,
2013-06-09 10:50:00,79.8,71.2,29.71,South,174,5.0,9.0,75,0.00,,,0.00,Wunderground v.1.15,2013-06-09 15:50:00,
2013-06-09 10:51:00,79.8,71.9,29.71,SSE,161,5.0,9.0,77,0.00,,,0.00,Wunderground v.1.15,2013-06-09 15:51:00,
2013-06-09 10:53:00,79.8,71.9,29.71,South,190,6.0,9.0,77,0.00,,,0.00,Wunderground v.1.15,2013-06-09 15:53:00,
2013-06-09 10:54:00,79.8,71.6,29.71,South,184,5.0,6.0,76,0.00,,,0.00,Wunderground v.1.15,2013-06-09 15:54:00,
2013-06-09 10:55:00,79.9,72.4,29.71,SSE,161,7.0,7.0,78,0.00,,,0.00,Wunderground v.1.15,2013-06-09 15:55:00,
2013-06-09 10:58:00,80.1,72.2,29.71,SSW,194,7.0,8.0,77,0.00,,,0.00,Wunderground v.1.15,2013-06-09 15:58:00,
2013-06-09 11:00:00,80.0,71.0,29.71,SSE,165,3.0,10.0,74,0.00,,,0.00,Wunderground v.1.15,2013-06-09 16:00:00,
2013-06-09 11:02:00,79.9,71.3,29.71,SSE,165,4.0,10.0,75,0.00,,,0.00,Wunderground v.1.15,2013-06-09 16:02:00,
2013-06-09 11:04:00,79.8,71.2,29.71,ESE,119,0.0,5.0,75,0.00,,,0.00,Wunderground v.1.15,2013-06-09 16:04:00,
2013-06-09 11:05:00,79.8,71.6,29.71,South,184,0.0,5.0,76,0.00,,,0.00,Wunderground v.1.15,2013-06-09 16:05:00,
2013-06-09 11:09:00,80.0,72.1,29.71,South,171,0.0,5.0,77,0.00,,,0.00,Wunderground v.1.15,2013-06-09 16:09:00,
2013-06-09 11:11:00,80.0,71.8,29.70,SSE,159,5.0,7.0,76,0.00,,,0.00,Wunderground v.1.15,2013-06-09 16:11:00,
2013-06-09 11:14:00,80.4,70.9,29.70,South,183,3.0,8.0,73,0.00,,,0.00,Wunderground v.1.15,2013-06-09 16:14:00,
2013-06-09 11:15:00,80.5,70.6,29.70,SSW,198,5.0,8.0,72,0.00,,,0.00,Wunderground v.1.15,2013-06-09 16:15:00,
2013-06-09 11:17:00,80.6,71.1,29.70,SE,146,5.0,8.0,73,0.00,,,0.00,Wunderground v.1.15,2013-06-09 16:17:00,
2013-06-09 11:19:00,80.7,71.2,29.70,South,178,0.0,8.0,73,0.00,,,0.00,Wunderground v.1.15,2013-06-09 16:19:00,
2013-06-09 11:20:00,80.7,71.2,29.70,South,178,0.0,8.0,73,0.00,,,0.00,Wunderground v.1.15,2013-06-09 16:20:00,
2013-06-09 11:22:00,80.9,72.2,29.70,SSE,163,3.0,8.0,75,0.00,,,0.00,Wunderground v.1.15,2013-06-09 16:22:00,
2013-06-09 11:23:00,81.0,71.5,29.70,South,175,4.0,8.0,73,0.00,,,0.00,Wunderground v.1.15,2013-06-09 16:23:00,
2013-06-09 11:24:00,81.2,72.1,29.70,SSW,196,7.0,7.0,74,0.00,,,0.00,Wunderground v.1.15,2013-06-09 16:24:00,
2013-06-09 11:25:00,81.2,71.7,29.70,South,184,5.0,8.0,73,0.00,,,0.00,Wunderground v.1.15,2013-06-09 16:25:00,
2013-06-09 11:27:00,81.4,71.9,29.70,South,186,4.0,10.0,73,0.00,,,0.00,Wunderground v.1.15,2013-06-09 16:27:00,
2013-06-09 11:28:00,81.4,72.3,29.70,South,182,5.0,10.0,74,0.00,,,0.00,Wunderground v.1.15,2013-06-09 16:28:00,
2013-06-09 11:30:00,81.4,71.1,29.70,South,172,7.0,10.0,71,0.00,,,0.00,Wunderground v.1.15,2013-06-09 16:30:00,
2013-06-09 11:31:00,81.5,71.6,29.70,SSE,155,3.0,10.0,72,0.00,,,0.00,Wunderground v.1.15,2013-06-09 16:31:00,
2013-06-09 11:32:00,81.5,71.2,29.70,South,175,0.0,10.0,71,0.00,,,0.00,Wunderground v.1.15,2013-06-09 16:32:00,
2013-06-09 11:33:00,81.6,71.7,29.70,SSW,194,2.0,10.0,72,0.00,,,0.00,Wunderground v.1.15,2013-06-09 16:33:00,
2013-06-09 11:35:00,81.7,71.4,29.70,SSE,153,4.0,5.0,71,0.00,,,0.00,Wunderground v.1.15,2013-06-09 16:35:00,
2013-06-09 11:36:00,81.7,71.4,29.70,SSE,150,5.0,5.0,71,0.00,,,0.00,Wunderground v.1.15,2013-06-09 16:36:00,
2013-06-09 11:37:00,81.8,71.9,29.70,SSE,162,2.0,5.0,72,0.00,,,0.00,Wunderground v.1.15,2013-06-09 16:37:00,
2013-06-09 11:38:00,81.8,72.3,29.69,South,173,5.0,5.0,73,0.00,,,0.00,Wunderground v.1.15,2013-06-09 16:38:00,
2013-06-09 11:41:00,82.1,72.2,29.69,SSE,154,0.0,6.0,72,0.00,,,0.00,Wunderground v.1.15,2013-06-09 16:41:00,
2013-06-09 11:42:00,82.1,71.8,29.69,South,180,5.0,6.0,71,0.00,,,0.00,Wunderground v.1.15,2013-06-09 16:42:00,
2013-06-09 11:43:00,82.2,71.4,29.69,South,188,3.0,6.0,70,0.00,,,0.00,Wunderground v.1.15,2013-06-09 16:43:00,
2013-06-09 11:46:00,82.3,72.8,29.69,SSW,192,8.0,8.0,73,0.00,,,0.00,Wunderground v.1.15,2013-06-09 16:46:00,
2013-06-09 11:47:00,82.3,71.5,29.69,South,188,8.0,8.0,70,0.00,,,0.00,Wunderground v.1.15,2013-06-09 16:47:00,
2013-06-09 11:48:00,82.3,71.5,29.69,South,179,5.0,8.0,70,0.00,,,0.00,Wunderground v.1.15,2013-06-09 16:48:00,
2013-06-09 11:52:00,82.0,71.2,29.68,SSW,194,3.0,9.0,70,0.00,,,0.00,Wunderground v.1.15,2013-06-09 16:52:00,
2013-06-09 11:53:00,81.8,71.9,29.68,South,176,3.0,9.0,72,0.00,,,0.00,Wunderground v.1.15,2013-06-09 16:53:00,
2013-06-09 11:54:00,81.8,71.9,29.68,SSE,158,5.0,5.0,72,0.00,,,0.00,Wunderground v.1.15,2013-06-09 16:54:00,
2013-06-09 11:57:00,82.0,72.5,29.68,South,183,6.0,8.0,73,0.00,,,0.00,Wunderground v.1.15,2013-06-09 16:57:00,
2013-06-09 11:58:00,82.0,71.7,29.68,South,191,10.0,10.0,71,0.00,,,0.00,Wunderground v.1.15,2013-06-09 16:58:00,
2013-06-09 11:59:00,82.0,71.7,29.68,South,183,3.0,10.0,71,0.00,,,0.00,Wunderground v.1.15,2013-06-09 16:59:00,
2013-06-09 12:00:00,82.0,72.1,29.68,SE,132,5.0,10.0,72,0.00,,,0.00,Wunderground v.1.15,2013-06-09 17:00:00,
2013-06-09 12:03:00,82.2,71.9,29.68,South,184,3.0,10.0,71,0.00,,,0.00,Wunderground v.1.15,2013-06-09 17:03:00,
2013-06-09 12:04:00,82.3,72.0,29.68,South,184,0.0,10.0,71,0.00,,,0.00,Wunderground v.1.15,2013-06-09 17:04:00,
2013-06-09 12:05:00,82.4,73.7,29.68,South,175,3.0,3.0,75,0.00,,,0.00,Wunderground v.1.15,2013-06-09 17:05:00,
2013-06-09 12:08:00,82.6,71.8,29.68,South,169,1.0,4.0,70,0.00,,,0.00,Wunderground v.1.15,2013-06-09 17:08:00,
2013-06-09 12:09:00,82.5,71.7,29.68,South,180,4.0,5.0,70,0.00,,,0.00,Wunderground v.1.15,2013-06-09 17:09:00,
2013-06-09 12:11:00,82.5,72.6,29.68,SE,142,7.0,7.0,72,0.00,,,0.00,Wunderground v.1.15,2013-06-09 17:11:00,
2013-06-09 12:12:00,82.5,71.7,29.68,South,170,5.0,8.0,70,0.00,,,0.00,Wunderground v.1.15,2013-06-09 17:12:00,
2013-06-09 12:14:00,82.5,71.7,29.68,South,171,5.0,8.0,70,0.00,,,0.00,Wunderground v.1.15,2013-06-09 17:14:00,
2013-06-09 12:16:00,82.6,72.2,29.68,SSE,152,2.0,7.0,71,0.00,,,0.00,Wunderground v.1.15,2013-06-09 17:16:00,
2013-06-09 12:17:00,82.7,72.7,29.67,SSE,150,7.0,7.0,72,0.00,,,0.00,Wunderground v.1.15,2013-06-09 17:17:00,
2013-06-09 12:19:00,82.7,71.5,29.67,South,172,5.0,10.0,69,0.00,,,0.00,Wunderground v.1.15,2013-06-09 17:19:00,
2013-06-09 12:21:00,82.9,72.5,29.68,SSE,168,5.0,10.0,71,0.00,,,0.00,Wunderground v.1.15,2013-06-09 17:21:00,
2013-06-09 12:23:00,82.9,71.7,29.67,SSE,168,3.0,10.0,69,0.00,,,0.00,Wunderground v.1.15,2013-06-09 17:23:00,
2013-06-09 12:24:00,83.0,72.2,29.67,SSE,152,7.0,10.0,70,0.00,,,0.00,Wunderground v.1.15,2013-06-09 17:24:00,
2013-06-09 12:25:00,83.0,72.2,29.67,SSW,197,5.0,5.0,70,0.00,,,0.00,Wunderground v.1.15,2013-06-09 17:25:00,
2013-06-09 12:26:00,83.1,71.9,29.67,SSE,164,6.0,13.0,69,0.00,,,0.00,Wunderground v.1.15,2013-06-09 17:26:00,
2013-06-09 12:28:00,83.2,72.0,29.67,South,190,9.0,13.0,69,0.00,,,0.00,Wunderground v.1.15,2013-06-09 17:28:00,
2013-06-09 12:29:00,83.1,71.9,29.67,South,184,4.0,13.0,69,0.00,,,0.00,Wunderground v.1.15,2013-06-09 17:29:00,
2013-06-09 12:30:00,83.0,71.3,29.67,South,187,6.0,13.0,68,0.00,,,0.00,Wunderground v.1.15,2013-06-09 17:30:00,
2013-06-09 12:31:00,82.8,71.2,29.67,South,185,4.0,15.0,68,0.00,,,0.00,Wunderground v.1.15,2013-06-09 17:31:00,
2013-06-09 12:34:00,82.5,70.9,29.67,SSE,155,4.0,15.0,68,0.00,,,0.00,Wunderground v.1.15,2013-06-09 17:34:00,
2013-06-09 12:35:00,82.5,71.3,29.67,South,182,3.0,6.0,69,0.00,,,0.00,Wunderground v.1.15,2013-06-09 17:35:00,
2013-06-09 12:37:00,82.5,71.3,29.67,SE,146,4.0,6.0,69,0.00,,,0.00,Wunderground v.1.15,2013-06-09 17:37:00,
2013-06-09 12:40:00,82.8,72.4,29.67,SSW,194,5.0,8.0,71,0.00,,,0.00,Wunderground v.1.15,2013-06-09 17:40:00,
2013-06-09 12:42:00,82.9,72.1,29.67,South,191,0.0,8.0,70,0.00,,,0.00,Wunderground v.1.15,2013-06-09 17:42:00,
2013-06-09 12:45:00,83.1,71.4,29.67,East,101,5.0,5.0,68,0.00,,,0.00,Wunderground v.1.15,2013-06-09 17:45:00,
2013-06-09 12:46:00,83.1,71.9,29.67,SSE,165,1.0,5.0,69,0.00,,,0.00,Wunderground v.1.15,2013-06-09 17:46:00,
2013-06-09 12:47:00,83.1,71.9,29.66,South,175,2.0,5.0,69,0.00,,,0.00,Wunderground v.1.15,2013-06-09 17:47:00,
2013-06-09 12:48:00,83.0,71.8,29.66,SSE,165,5.0,5.0,69,0.00,,,0.00,Wunderground v.1.15,2013-06-09 17:48:00,
2013-06-09 12:50:00,83.0,71.8,29.66,SSE,167,4.0,6.0,69,0.00,,,0.00,Wunderground v.1.15,2013-06-09 17:50:00,
2013-06-09 12:51:00,83.0,72.2,29.66,South,188,0.0,6.0,70,0.00,,,0.00,Wunderground v.1.15,2013-06-09 17:51:00,
2013-06-09 12:52:00,83.0,72.2,29.66,South,187,0.0,6.0,70,0.00,,,0.00,Wunderground v.1.15,2013-06-09 17:52:00,
2013-06-09 12:53:00,83.1,72.3,29.66,South,187,0.0,6.0,70,0.00,,,0.00,Wunderground v.1.15,2013-06-09 17:53:00,
2013-06-09 12:55:00,83.3,72.1,29.66,South,178,1.0,4.0,69,0.00,,,0.00,Wunderground v.1.15,2013-06-09 17:55:00,
2013-06-09 12:56:00,83.4,72.2,29.66,SSW,195,6.0,6.0,69,0.00,,,0.00,Wunderground v.1.15,2013-06-09 17:56:00,
2013-06-09 12:57:00,83.4,71.3,29.66,SSE,168,1.0,6.0,67,0.00,,,0.00,Wunderground v.1.15,2013-06-09 17:57:00,
2013-06-09 12:59:00,83.4,72.2,29.66,South,173,4.0,6.0,69,0.00,,,0.00,Wunderground v.1.15,2013-06-09 17:59:00,
2013-06-09 13:00:00,83.3,71.2,29.66,South,175,5.0,6.0,67,0.00,,,0.00,Wunderground v.1.15,2013-06-09 18:00:00,
2013-06-09 13:02:00,83.2,71.1,29.66,SSE,164,3.0,6.0,67,0.00,,,0.00,Wunderground v.1.15,2013-06-09 18:02:00,
2013-06-09 13:03:00,83.0,70.9,29.65,South,171,1.0,6.0,67,0.00,,,0.00,Wunderground v.1.15,2013-06-09 18:03:00,
2013-06-09 13:06:00,83.0,71.3,29.65,SSE,167,2.0,3.0,68,0.00,,,0.00,Wunderground v.1.15,2013-06-09 18:06:00,
2013-06-09 13:07:00,83.0,71.8,29.65,SSW,194,2.0,6.0,69,0.00,,,0.00,Wunderground v.1.15,2013-06-09 18:07:00,
2013-06-09 13:08:00,83.0,72.2,29.65,South,175,3.0,6.0,70,0.00,,,0.00,Wunderground v.1.15,2013-06-09 18:08:00,
2013-06-09 13:09:00,83.1,72.3,29.65,South,175,2.0,6.0,70,0.00,,,0.00,Wunderground v.1.15,2013-06-09 18:09:00,
2013-06-09 13:12:00,83.4,73.0,29.65,SE,138,0.0,6.0,71,0.00,,,0.00,Wunderground v.1.15,2013-06-09 18:12:00,
2013-06-09 13:14:00,83.5,71.4,29.65,ESE,109,1.0,6.0,67,0.00,,,0.00,Wunderground v.1.15,2013-06-09 18:14:00,
2013-06-09 13:15:00,83.7,72.9,29.65,SSE,167,4.0,4.0,70,0.00,,,0.00,Wunderground v.1.15,2013-06-09 18:15:00,
2013-06-09 13:17:00,83.9,71.3,29.65,South,173,5.0,8.0,66,0.00,,,0.00,Wunderground v.1.15,2013-06-09 18:17:00,
2013-06-09 13:18:00,83.9,71.3,29.65,SE,134,4.0,8.0,66,0.00,,,0.00,Wunderground v.1.15,2013-06-09 18:18:00,
2013-06-09 13:19:00,84.0,71.0,29.65,SSW,199,11.0,11.0,65,0.00,,,0.00,Wunderground v.1.15,2013-06-09 18:19:00,
2013-06-09 13:21:00,84.0,71.4,29.65,SE,143,5.0,11.0,66,0.00,,,0.00,Wunderground v.1.15,2013-06-09 18:21:00,
2013-06-09 13:23:00,84.1,72.4,29.64,SSE,160,5.0,11.0,68,0.00,,,0.00,Wunderground v.1.15,2013-06-09 18:23:00,
2013-06-09 13:24:00,84.2,71.6,29.64,SSW,200,6.0,11.0,66,0.00,,,0.00,Wunderground v.1.15,2013-06-09 18:24:00,
2013-06-09 13:26:00,84.1,71.5,29.64,South,172,5.0,11.0,66,0.00,,,0.00,Wunderground v.1.15,2013-06-09 18:26:00,
2013-06-09 13:28:00,84.0,71.9,29.64,East,87,7.0,11.0,67,0.00,,,0.00,Wunderground v.1.15,2013-06-09 18:28:00,
2013-06-09 13:29:00,84.0,71.9,29.64,SW,226,2.0,11.0,67,0.00,,,0.00,Wunderground v.1.15,2013-06-09 18:29:00,
2013-06-09 13:30:00,84.0,72.3,29.64,SW,232,0.0,11.0,68,0.00,,,0.00,Wunderground v.1.15,2013-06-09 18:30:00,
2013-06-09 13:32:00,84.1,72.8,29.64,SW,232,0.0,11.0,69,0.00,,,0.00,Wunderground v.1.15,2013-06-09 18:32:00,
2013-06-09 13:34:00,84.1,72.0,29.64,South,180,5.0,11.0,67,0.00,,,0.00,Wunderground v.1.15,2013-06-09 18:34:00,
2013-06-09 13:35:00,84.2,72.5,29.64,SSE,149,7.0,7.0,68,0.00,,,0.00,Wunderground v.1.15,2013-06-09 18:35:00,
2013-06-09 13:36:00,84.3,72.1,29.64,South,171,3.0,8.0,67,0.00,,,0.00,Wunderground v.1.15,2013-06-09 18:36:00,
2013-06-09 13:38:00,84.5,72.8,29.63,South,175,6.0,10.0,68,0.00,,,0.00,Wunderground v.1.15,2013-06-09 18:38:00,
2013-06-09 13:39:00,84.6,72.9,29.63,South,174,10.0,10.0,68,0.00,,,0.00,Wunderground v.1.15,2013-06-09 18:39:00,
2013-06-09 13:40:00,84.6,72.4,29.63,SSW,194,6.0,10.0,67,0.00,,,0.00,Wunderground v.1.15,2013-06-09 18:40:00,
2013-06-09 13:41:00,84.5,72.3,29.63,SSE,164,5.0,10.0,67,0.00,,,0.00,Wunderground v.1.15,2013-06-09 18:41:00,
2013-06-09 13:44:00,84.3,72.1,29.63,South,186,3.0,10.0,67,0.00,,,0.00,Wunderground v.1.15,2013-06-09 18:44:00,
2013-06-09 13:45:00,84.3,72.1,29.63,South,187,4.0,5.0,67,0.00,,,0.00,Wunderground v.1.15,2013-06-09 18:45:00,
2013-06-09 13:46:00,84.3,72.6,29.63,South,174,5.0,6.0,68,0.00,,,0.00,Wunderground v.1.15,2013-06-09 18:46:00,
2013-06-09 13:47:00,84.4,72.2,29.63,South,169,1.0,6.0,67,0.00,,,0.00,Wunderground v.1.15,2013-06-09 18:47:00,
2013-06-09 13:49:00,84.3,71.2,29.63,South,174,3.0,7.0,65,0.00,,,0.00,Wunderground v.1.15,2013-06-09 18:49:00,
2013-06-09 13:50:00,84.3,71.7,29.63,SSE,167,5.0,7.0,66,0.00,,,0.00,Wunderground v.1.15,2013-06-09 18:50:00,
2013-06-09 13:51:00,84.4,72.2,29.63,South,178,3.0,7.0,67,0.00,,,0.00,Wunderground v.1.15,2013-06-09 18:51:00,
2013-06-09 13:53:00,84.6,72.0,29.63,South,173,1.0,7.0,66,0.00,,,0.00,Wunderground v.1.15,2013-06-09 18:53:00,
2013-06-09 13:54:00,84.6,72.4,29.63,SSE,150,3.0,7.0,67,0.00,,,0.00,Wunderground v.1.15,2013-06-09 18:54:00,
2013-06-09 13:55:00,84.7,72.1,29.62,South,175,7.0,7.0,66,0.00,,,0.00,Wunderground v.1.15,2013-06-09 18:55:00,
2013-06-09 13:56:00,84.7,71.6,29.62,South,169,4.0,7.0,65,0.00,,,0.00,Wunderground v.1.15,2013-06-09 18:56:00,
2013-06-09 13:59:00,85.1,73.3,29.62,NE,43,0.0,7.0,68,0.00,,,0.00,Wunderground v.1.15,2013-06-09 18:59:00,
2013-06-09 14:01:00,85.3,72.6,29.62,South,183,3.0,7.0,66,0.00,,,0.00,Wunderground v.1.15,2013-06-09 19:01:00,
2013-06-09 14:02:00,85.4,72.7,29.62,SSE,167,3.0,7.0,66,0.00,,,0.00,Wunderground v.1.15,2013-06-09 19:02:00,
2013-06-09 14:04:00,85.4,71.4,29.62,South,178,4.0,8.0,63,0.00,,,0.00,Wunderground v.1.15,2013-06-09 19:04:00,
2013-06-09 14:05:00,85.3,71.3,29.62,South,175,4.0,4.0,63,0.00,,,0.00,Wunderground v.1.15,2013-06-09 19:05:00,
2013-06-09 14:06:00,85.1,71.5,29.62,South,191,2.0,7.0,64,0.00,,,0.00,Wunderground v.1.15,2013-06-09 19:06:00,
2013-06-09 14:07:00,85.1,71.5,29.62,South,188,0.0,7.0,64,0.00,,,0.00,Wunderground v.1.15,2013-06-09 19:07:00,
2013-06-09 14:09:00,85.2,72.1,29.62,South,178,4.0,11.0,65,0.00,,,0.00,Wunderground v.1.15,2013-06-09 19:09:00,
2013-06-09 14:10:00,85.2,71.2,29.62,SSE,168,3.0,11.0,63,0.00,,,0.00,Wunderground v.1.15,2013-06-09 19:10:00,
2013-06-09 14:12:00,85.2,71.6,29.61,SSE,148,0.0,11.0,64,0.00,,,0.00,Wunderground v.1.15,2013-06-09 19:12:00,
2013-06-09 14:15:00,85.2,72.1,29.61,SSE,159,0.0,3.0,65,0.00,,,0.00,Wunderground v.1.15,2013-06-09 19:15:00,
2013-06-09 14:16:00,85.2,71.6,29.61,SSE,159,0.0,3.0,64,0.00,,,0.00,Wunderground v.1.15,2013-06-09 19:16:00,
2013-06-09 14:17:00,85.2,71.6,29.61,SSE,159,0.0,3.0,64,0.00,,,0.00,Wunderground v.1.15,2013-06-09 19:17:00,
2013-06-09 14:18:00,85.2,72.1,29.61,SSE,159,0.0,3.0,65,0.00,,,0.00,Wunderground v.1.15,2013-06-09 19:18:00,
2013-06-09 14:20:00,85.4,72.7,29.61,SSE,156,0.0,3.0,66,0.00,,,0.00,Wunderground v.1.15,2013-06-09 19:20:00,
2013-06-09 14:21:00,85.5,73.7,29.61,SE,134,7.0,7.0,68,0.00,,,0.00,Wunderground v.1.15,2013-06-09 19:21:00,
2013-06-09 14:22:00,85.5,74.6,29.61,SSE,161,3.0,8.0,70,0.00,,,0.00,Wunderground v.1.15,2013-06-09 19:22:00,
2013-06-09 14:23:00,85.6,72.5,29.61,SSE,161,2.0,8.0,65,0.00,,,0.00,Wunderground v.1.15,2013-06-09 19:23:00,
2013-06-09 14:26:00,85.5,71.9,29.61,South,187,2.0,5.0,64,0.00,,,0.00,Wunderground v.1.15,2013-06-09 19:26:00,
2013-06-09 14:27:00,85.4,71.8,29.61,South,170,2.0,6.0,64,0.00,,,0.00,Wunderground v.1.15,2013-06-09 19:27:00,
2013-06-09 14:28:00,85.4,71.8,29.61,South,176,3.0,6.0,64,0.00,,,0.00,Wunderground v.1.15,2013-06-09 19:28:00,
2013-06-09 14:29:00,85.4,71.8,29.61,SSE,152,1.0,9.0,64,0.00,,,0.00,Wunderground v.1.15,2013-06-09 19:29:00,
2013-06-09 14:31:00,85.4,71.4,29.61,South,171,5.0,9.0,63,0.00,,,0.00,Wunderground v.1.15,2013-06-09 19:31:00,
2013-06-09 14:32:00,85.4,71.8,29.61,SSE,155,4.0,9.0,64,0.00,,,0.00,Wunderground v.1.15,2013-06-09 19:32:00,
2013-06-09 14:33:00,85.4,71.8,29.61,SSE,147,6.0,9.0,64,0.00,,,0.00,Wunderground v.1.15,2013-06-09 19:33:00,
2013-06-09 14:34:00,85.5,71.9,29.61,SSE,155,0.0,9.0,64,0.00,,,0.00,Wunderground v.1.15,2013-06-09 19:34:00,
2013-06-09 14:37:00,85.7,71.7,29.61,South,173,3.0,6.0,63,0.00,,,0.00,Wunderground v.1.15,2013-06-09 19:37:00,
2013-06-09 14:38:00,85.7,71.7,29.61,SSW,202,4.0,6.0,63,0.00,,,0.00,Wunderground v.1.15,2013-06-09 19:38:00,
2013-06-09 14:39:00,85.7,71.7,29.61,SE,134,0.0,6.0,63,0.00,,,0.00,Wunderground v.1.15,2013-06-09 19:39:00,
2013-06-09 14:40:00,85.7,71.2,29.61,South,169,5.0,6.0,62,0.00,,,0.00,Wunderground v.1.15,2013-06-09 19:40:00,
2013-06-09 14:42:00,85.7,71.2,29.61,SSE,160,2.0,6.0,62,0.00,,,0.00,Wunderground v.1.15,2013-06-09 19:42:00,
2013-06-09 14:43:00,85.7,70.7,29.61,South,178,3.0,6.0,61,0.00,,,0.00,Wunderground v.1.15,2013-06-09 19:43:00,
2013-06-09 14:45:00,85.5,71.0,29.61,SE,133,0.0,2.0,62,0.00,,,0.00,Wunderground v.1.15,2013-06-09 19:45:00,
2013-06-09 14:47:00,85.6,72.0,29.61,SSW,200,0.0,9.0,64,0.00,,,0.00,Wunderground v.1.15,2013-06-09 19:47:00,
2013-06-09 14:48:00,85.6,72.0,29.61,SSW,199,0.0,9.0,64,0.00,,,0.00,Wunderground v.1.15,2013-06-09 19:48:00,
2013-06-09 14:50:00,85.7,71.2,29.61,South,173,3.0,9.0,62,0.00,,,0.00,Wunderground v.1.15,2013-06-09 19:50:00,
2013-06-09 14:51:00,85.8,71.3,29.61,South,190,5.0,9.0,62,0.00,,,0.00,Wunderground v.1.15,2013-06-09 19:51:00,
2013-06-09 14:52:00,85.9,70.9,29.61,SSE,157,6.0,9.0,61,0.00,,,0.00,Wunderground v.1.15,2013-06-09 19:52:00,
2013-06-09 14:55:00,86.1,71.6,29.61,SE,146,0.0,3.0,62,0.00,,,0.00,Wunderground v.1.15,2013-06-09 19:55:00,
2013-06-09 14:57:00,86.3,70.8,29.61,South,173,3.0,4.0,60,0.00,,,0.00,Wunderground v.1.15,2013-06-09 19:57:00,
2013-06-09 14:58:00,86.3,70.8,29.60,SSE,168,1.0,4.0,60,0.00,,,0.00,Wunderground v.1.15,2013-06-09 19:58:00,
2013-06-09 15:00:00,86.5,71.5,29.60,SSW,192,4.0,8.0,61,0.00,,,0.00,Wunderground v.1.15,2013-06-09 20:00:00,
2013-06-09 15:01:00,86.5,71.5,29.60,SSE,163,4.0,8.0,61,0.00,,,0.00,Wunderground v.1.15,2013-06-09 20:01:00,
2013-06-09 15:02:00,86.5,71.0,29.60,South,187,3.0,9.0,60,0.00,,,0.00,Wunderground v.1.15,2013-06-09 20:02:00,
2013-06-09 15:03:00,86.5,71.0,29.60,South,176,3.0,9.0,60,0.00,,,0.00,Wunderground v.1.15,2013-06-09 20:03:00,
2013-06-09 15:06:00,86.5,71.5,29.60,South,177,0.0,4.0,61,0.00,,,0.00,Wunderground v.1.15,2013-06-09 20:06:00,
2013-06-09 15:07:00,86.5,71.9,29.60,South,177,0.0,4.0,62,0.00,,,0.00,Wunderground v.1.15,2013-06-09 20:07:00,
2013-06-09 15:08:00,86.6,72.5,29.60,ESE,118,1.0,4.0,63,0.00,,,0.00,Wunderground v.1.15,2013-06-09 20:08:00,
2013-06-09 15:09:00,86.7,73.1,29.60,ESE,117,0.0,4.0,64,0.00,,,0.00,Wunderground v.1.15,2013-06-09 20:09:00,
2013-06-09 15:11:00,87.0,72.4,29.61,NNE,22,4.0,6.0,62,0.00,,,0.00,Wunderground v.1.15,2013-06-09 20:11:00,
2013-06-09 15:12:00,87.1,72.0,29.60,South,175,0.0,6.0,61,0.00,,,0.00,Wunderground v.1.15,2013-06-09 20:12:00,
2013-06-09 15:13:00,87.2,73.1,29.60,South,177,0.0,6.0,63,0.00,,,0.00,Wunderground v.1.15,2013-06-09 20:13:00,
2013-06-09 15:14:00,87.4,71.3,29.60,South,189,0.0,6.0,59,0.00,,,0.00,Wunderground v.1.15,2013-06-09 20:14:00,
2013-06-09 15:17:00,87.7,72.1,29.60,NNW,327,0.0,6.0,60,0.00,,,0.00,Wunderground v.1.15,2013-06-09 20:17:00,
2013-06-09 15:18:00,87.9,72.8,29.60,NW,326,0.0,6.0,61,0.00,,,0.00,Wunderground v.1.15,2013-06-09 20:18:00,
2013-06-09 15:20:00,88.1,72.0,29.60,NNE,14,0.0,6.0,59,0.00,,,0.00,Wunderground v.1.15,2013-06-09 20:20:00,
2013-06-09 15:22:00,88.3,72.7,29.60,SSE,167,1.0,6.0,60,0.00,,,0.00,Wunderground v.1.15,2013-06-09 20:22:00,
2013-06-09 15:23:00,88.2,71.0,29.60,South,187,4.0,7.0,57,0.00,,,0.00,Wunderground v.1.15,2013-06-09 20:23:00,
2013-06-09 15:24:00,88.1,70.4,29.60,South,182,6.0,13.0,56,0.00,,,0.00,Wunderground v.1.15,2013-06-09 20:24:00,
2013-06-09 15:25:00,87.7,70.6,29.60,SSW,200,5.0,5.0,57,0.00,,,0.00,Wunderground v.1.15,2013-06-09 20:25:00,
2013-06-09 15:27:00,87.4,70.8,29.60,South,172,4.0,5.0,58,0.00,,,0.00,Wunderground v.1.15,2013-06-09 20:27:00,
2013-06-09 15:29:00,87.3,71.2,29.60,South,178,3.0,7.0,59,0.00,,,0.00,Wunderground v.1.15,2013-06-09 20:29:00,
2013-06-09 15:30:00,87.1,71.5,29.60,SSE,156,7.0,7.0,60,0.00,,,0.00,Wunderground v.1.15,2013-06-09 20:30:00,
2013-06-09 15:32:00,87.1,72.0,29.59,South,176,3.0,7.0,61,0.00,,,0.00,Wunderground v.1.15,2013-06-09 20:32:00,
2013-06-09 15:34:00,87.1,71.0,29.59,South,174,4.0,7.0,59,0.00,,,0.00,Wunderground v.1.15,2013-06-09 20:34:00,
2013-06-09 15:35:00,87.1,71.0,29.59,SSW,196,3.0,4.0,59,0.00,,,0.00,Wunderground v.1.15,2013-06-09 20:35:00,
2013-06-09 15:36:00,87.1,71.0,29.59,SSE,152,8.0,8.0,59,0.00,,,0.00,Wunderground v.1.15,2013-06-09 20:36:00,
2013-06-09 15:38:00,87.1,71.0,29.59,SSW,201,5.0,11.0,59,0.00,,,0.00,Wunderground v.1.15,2013-06-09 20:38:00,
2013-06-09 15:39:00,87.0,71.4,29.59,South,175,2.0,11.0,60,0.00,,,0.00,Wunderground v.1.15,2013-06-09 20:39:00,
2013-06-09 15:40:00,86.9,71.3,29.59,South,173,5.0,11.0,60,0.00,,,0.00,Wunderground v.1.15,2013-06-09 20:40:00,
2013-06-09 15:41:00,86.8,71.2,29.59,SSE,168,4.0,11.0,60,0.00,,,0.00,Wunderground v.1.15,2013-06-09 20:41:00,
2013-06-09 15:42:00,86.7,70.7,29.59,SSE,156,1.0,11.0,59,0.00,,,0.00,Wunderground v.1.15,2013-06-09 20:42:00,
2013-06-09 15:44:00,86.6,71.1,29.59,SSE,167,6.0,11.0,60,0.00,,,0.00,Wunderground v.1.15,2013-06-09 20:44:00,
2013-06-09 15:45:00,86.6,70.6,29.59,SSE,148,4.0,4.0,59,0.00,,,0.00,Wunderground v.1.15,2013-06-09 20:45:00,
2013-06-09 15:47:00,86.5,70.5,29.59,South,182,3.0,7.0,59,0.00,,,0.00,Wunderground v.1.15,2013-06-09 20:47:00,
2013-06-09 15:48:00,86.4,70.4,29.59,South,178,2.0,7.0,59,0.00,,,0.00,Wunderground v.1.15,2013-06-09 20:48:00,
2013-06-09 15:49:00,86.3,70.8,29.59,South,188,2.0,7.0,60,0.00,,,0.00,Wunderground v.1.15,2013-06-09 20:49:00,
2013-06-09 15:50:00,86.3,70.8,29.59,South,188,2.0,7.0,60,0.00,,,0.00,Wunderground v.1.15,2013-06-09 20:50:00,
2013-06-09 15:52:00,86.2,70.7,29.59,South,172,1.0,7.0,60,0.00,,,0.00,Wunderground v.1.15,2013-06-09 20:52:00,
2013-06-09 15:53:00,86.1,70.6,29.59,South,175,2.0,7.0,60,0.00,,,0.00,Wunderground v.1.15,2013-06-09 20:53:00,
2013-06-09 15:55:00,86.1,70.6,29.59,South,175,2.0,3.0,60,0.00,,,0.00,Wunderground v.1.15,2013-06-09 20:55:00,
2013-06-09 15:56:00,86.0,70.5,29.59,South,169,2.0,5.0,60,0.00,,,0.00,Wunderground v.1.15,2013-06-09 20:56:00,
2013-06-09 15:58:00,85.9,70.9,29.59,SSE,167,5.0,7.0,61,0.00,,,0.00,Wunderground v.1.15,2013-06-09 20:58:00,
2013-06-09 16:00:00,85.8,70.8,29.59,SSE,168,1.0,7.0,61,0.00,,,0.00,Wunderground v.1.15,2013-06-09 21:00:00,
2013-06-09 16:02:00,85.8,71.3,29.59,SSE,167,4.0,7.0,62,0.00,,,0.00,Wunderground v.1.15,2013-06-09 21:02:00,
2013-06-09 16:03:00,85.8,70.8,29.59,South,188,6.0,7.0,61,0.00,,,0.00,Wunderground v.1.15,2013-06-09 21:03:00,
2013-06-09 16:05:00,85.8,70.8,29.59,South,171,3.0,4.0,61,0.00,,,0.00,Wunderground v.1.15,2013-06-09 21:05:00,
2013-06-09 16:07:00,85.8,71.7,29.58,SE,140,4.0,6.0,63,0.00,,,0.00,Wunderground v.1.15,2013-06-09 21:07:00,
2013-06-09 16:08:00,85.7,71.2,29.59,South,186,4.0,6.0,62,0.00,,,0.00,Wunderground v.1.15,2013-06-09 21:08:00,
2013-06-09 16:10:00,85.7,71.2,29.58,SSE,166,4.0,8.0,62,0.00,,,0.00,Wunderground v.1.15,2013-06-09 21:10:00,
2013-06-09 16:12:00,85.6,71.1,29.58,South,182,2.0,8.0,62,0.00,,,0.00,Wunderground v.1.15,2013-06-09 21:12:00,
2013-06-09 16:13:00,85.6,71.1,29.58,SSW,194,6.0,8.0,62,0.00,,,0.00,Wunderground v.1.15,2013-06-09 21:13:00,
2013-06-09 16:15:00,85.6,71.6,29.58,SSW,192,0.0,4.0,63,0.00,,,0.00,Wunderground v.1.15,2013-06-09 21:15:00,
2013-06-09 16:16:00,85.5,71.5,29.58,SSW,194,3.0,4.0,63,0.00,,,0.00,Wunderground v.1.15,2013-06-09 21:16:00,
2013-06-09 16:18:00,85.5,71.0,29.58,South,171,3.0,7.0,62,0.00,,,0.00,Wunderground v.1.15,2013-06-09 21:18:00,
2013-06-09 16:19:00,85.6,71.1,29.58,South,183,2.0,7.0,62,0.00,,,0.00,Wunderground v.1.15,2013-06-09 21:19:00,
2013-06-09 16:22:00,85.6,71.6,29.58,South,183,0.0,7.0,63,0.00,,,0.00,Wunderground v.1.15,2013-06-09 21:22:00,
2013-06-09 16:23:00,85.6,72.0,29.58,South,183,0.0,7.0,64,0.00,,,0.00,Wunderground v.1.15,2013-06-09 21:23:00,
2013-06-09 16:24:00,85.6,72.0,29.58,South,183,1.0,7.0,64,0.00,,,0.00,Wunderground v.1.15,2013-06-09 21:24:00,
2013-06-09 16:27:00,85.6,71.1,29.58,SSE,153,2.0,4.0,62,0.00,,,0.00,Wunderground v.1.15,2013-06-09 21:27:00,
2013-06-09 16:28:00,85.5,71.5,29.58,SSE,157,0.0,4.0,63,0.00,,,0.00,Wunderground v.1.15,2013-06-09 21:28:00,
2013-06-09 16:29:00,85.5,71.5,29.58,SE,146,1.0,5.0,63,0.00,,,0.00,Wunderground v.1.15,2013-06-09 21:29:00,
2013-06-09 16:31:00,85.5,71.0,29.58,SSE,148,0.0,5.0,62,0.00,,,0.00,Wunderground v.1.15,2013-06-09 21:31:00,
2013-06-09 16:32:00,85.6,71.1,29.58,South,191,5.0,5.0,62,0.00,,,0.00,Wunderground v.1.15,2013-06-09 21:32:00,
2013-06-09 16:33:00,85.6,71.1,29.58,South,175,5.0,5.0,62,0.00,,,0.00,Wunderground v.1.15,2013-06-09 21:33:00,
2013-06-09 16:34:00,85.5,71.5,29.58,South,189,5.0,6.0,63,0.00,,,0.00,Wunderground v.1.15,2013-06-09 21:34:00,
2013-06-09 16:37:00,85.5,71.0,29.58,South,180,0.0,3.0,62,0.00,,,0.00,Wunderground v.1.15,2013-06-09 21:37:00,
2013-06-09 16:38:00,85.5,71.0,29.58,South,180,2.0,3.0,62,0.00,,,0.00,Wunderground v.1.15,2013-06-09 21:38:00,
2013-06-09 16:39:00,85.5,71.9,29.58,SE,145,0.0,3.0,64,0.00,,,0.00,Wunderground v.1.15,2013-06-09 21:39:00,
2013-06-09 16:40:00,85.5,71.9,29.58,SSE,166,2.0,3.0,64,0.00,,,0.00,Wunderground v.1.15,2013-06-09 21:40:00,
2013-06-09 16:43:00,85.3,70.8,29.57,SSE,167,2.0,4.0,62,0.00,,,0.00,Wunderground v.1.15,2013-06-09 21:43:00,
2013-06-09 16:44:00,85.3,71.3,29.57,SSE,167,0.0,4.0,63,0.00,,,0.00,Wunderground v.1.15,2013-06-09 21:44:00,
2013-06-09 16:46:00,85.2,72.1,29.57,SSE,167,0.0,1.0,65,0.00,,,0.00,Wunderground v.1.15,2013-06-09 21:46:00,
2013-06-09 16:48:00,85.2,71.6,29.58,SSW,192,0.0,1.0,64,0.00,,,0.00,Wunderground v.1.15,2013-06-09 21:48:00,
2013-06-09 16:49:00,85.1,71.1,29.58,SSW,203,2.0,3.0,63,0.00,,,0.00,Wunderground v.1.15,2013-06-09 21:49:00,
2013-06-09 16:50:00,85.0,71.0,29.57,SSW,203,0.0,3.0,63,0.00,,,0.00,Wunderground v.1.15,2013-06-09 21:50:00,
2013-06-09 16:52:00,84.9,73.2,29.57,SSW,203,2.0,3.0,68,0.00,,,0.00,Wunderground v.1.15,2013-06-09 21:52:00,
2013-06-09 16:53:00,84.9,71.4,29.57,SSW,203,1.0,3.0,64,0.00,,,0.00,Wunderground v.1.15,2013-06-09 21:53:00,
2013-06-09 16:54:00,84.8,71.7,29.57,SSW,203,0.0,3.0,65,0.00,,,0.00,Wunderground v.1.15,2013-06-09 21:54:00,
2013-06-09 16:55:00,84.8,71.3,29.57,SSW,203,1.0,2.0,64,0.00,,,0.00,Wunderground v.1.15,2013-06-09 21:55:00,
2013-06-09 16:57:00,84.7,71.2,29.57,SSE,164,0.0,3.0,64,0.00,,,0.00,Wunderground v.1.15,2013-06-09 21:57:00,
2013-06-09 16:58:00,84.7,71.2,29.57,SSE,165,0.0,3.0,64,0.00,,,0.00,Wunderground v.1.15,2013-06-09 21:58:00,
2013-06-09 16:59:00,84.7,71.2,29.57,SSE,165,0.0,3.0,64,0.00,,,0.00,Wunderground v.1.15,2013-06-09 21:59:00,
2013-06-09 17:01:00,84.7,71.2,29.57,SSE,165,0.0,3.0,64,0.00,,,0.00,Wunderground v.1.15,2013-06-09 22:01:00,
2013-06-09 17:03:00,84.7,72.5,29.57,SSE,164,0.0,3.0,67,0.00,,,0.00,Wunderground v.1.15,2013-06-09 22:03:00,
2013-06-09 17:04:00,84.7,72.5,29.57,SSE,165,0.0,3.0,67,0.00,,,0.00,Wunderground v.1.15,2013-06-09 22:04:00,
2013-06-09 17:06:00,84.8,71.7,29.57,SSE,164,2.0,3.0,65,0.00,,,0.00,Wunderground v.1.15,2013-06-09 22:06:00,
2013-06-09 17:07:00,84.8,71.3,29.57,SSE,165,0.0,3.0,64,0.00,,,0.00,Wunderground v.1.15,2013-06-09 22:07:00,
2013-06-09 17:09:00,84.8,72.2,29.57,SSE,165,0.0,3.0,66,0.00,,,0.00,Wunderground v.1.15,2013-06-09 22:09:00,
2013-06-09 17:11:00,85.0,71.9,29.57,SSE,165,0.0,3.0,65,0.00,,,0.00,Wunderground v.1.15,2013-06-09 22:11:00,
2013-06-09 17:12:00,85.0,72.4,29.56,SSE,164,0.0,3.0,66,0.00,,,0.00,Wunderground v.1.15,2013-06-09 22:12:00,
2013-06-09 17:14:00,85.1,72.0,29.56,SSW,203,0.0,3.0,65,0.00,,,0.00,Wunderground v.1.15,2013-06-09 22:14:00,
2013-06-09 17:15:00,85.1,72.0,29.56,SSW,203,0.0,1.0,65,0.00,,,0.00,Wunderground v.1.15,2013-06-09 22:15:00,
2013-06-09 17:16:00,85.3,71.7,29.56,SSE,161,0.0,1.0,64,0.00,,,0.00,Wunderground v.1.15,2013-06-09 22:16:00,
2013-06-09 17:17:00,85.3,71.7,29.56,SSE,161,0.0,1.0,64,0.00,,,0.00,Wunderground v.1.15,2013-06-09 22:17:00,
2013-06-09 17:20:00,85.4,72.3,29.56,SSE,156,0.0,1.0,65,0.00,,,0.00,Wunderground v.1.15,2013-06-09 22:20:00,
2013-06-09 17:22:00,85.5,72.8,29.56,SE,144,0.0,1.0,66,0.00,,,0.00,Wunderground v.1.15,2013-06-09 22:22:00,
2013-06-09 17:23:00,85.5,74.2,29.56,SE,144,0.0,1.0,69,0.00,,,0.00,Wunderground v.1.15,2013-06-09 22:23:00,
2013-06-09 17:25:00,85.5,74.2,29.57,SE,144,0.0,0.0,69,0.00,,,0.00,Wunderground v.1.15,2013-06-09 22:25:00,
2013-06-09 17:26:00,85.4,74.5,29.57,SE,144,0.0,0.0,70,0.00,,,0.00,Wunderground v.1.15,2013-06-09 22:26:00,
2013-06-09 17:27:00,85.2,74.7,29.57,SE,144,0.0,0.0,71,0.00,,,0.00,Wunderground v.1.15,2013-06-09 22:27:00,
2013-06-09 17:28:00,85.2,74.7,29.57,SE,144,0.0,0.0,71,0.00,,,0.00,Wunderground v.1.15,2013-06-09 22:28:00,
2013-06-09 17:30:00,84.8,73.1,29.58,SSE,167,9.0,9.0,68,0.00,,,0.00,Wunderground v.1.15,2013-06-09 22:30:00,
2013-06-09 17:31:00,84.7,73.0,29.58,SSE,167,9.0,10.0,68,0.00,,,0.00,Wunderground v.1.15,2013-06-09 22:31:00,
2013-06-09 17:32:00,84.6,71.5,29.58,SSE,165,4.0,10.0,65,0.00,,,0.00,Wunderground v.1.15,2013-06-09 22:32:00,
2013-06-09 17:33:00,84.3,70.8,29.58,SSW,201,6.0,10.0,64,0.00,,,0.00,Wunderground v.1.15,2013-06-09 22:33:00,
2013-06-09 17:35:00,81.8,68.9,29.58,SSE,161,4.0,16.0,65,0.00,,,0.00,Wunderground v.1.15,2013-06-09 22:35:00,
2013-06-09 17:37:00,80.9,68.5,29.58,SSW,195,3.0,16.0,66,0.00,,,0.00,Wunderground v.1.15,2013-06-09 22:37:00,
2013-06-09 17:38:00,80.3,68.3,29.58,SSE,165,4.0,16.0,67,0.00,,,0.00,Wunderground v.1.15,2013-06-09 22:38:00,
2013-06-09 17:41:00,79.4,69.2,29.58,East,100,1.0,16.0,71,0.00,,,0.00,Wunderground v.1.15,2013-06-09 22:41:00,
2013-06-09 17:42:00,79.1,69.7,29.58,South,190,2.0,16.0,73,0.00,,,0.00,Wunderground v.1.15,2013-06-09 22:42:00,
2013-06-09 17:43:00,78.8,69.8,29.58,SW,220,2.0,16.0,74,0.00,,,0.00,Wunderground v.1.15,2013-06-09 22:43:00,
2013-06-09 17:44:00,78.7,69.7,29.58,WNW,298,1.0,16.0,74,0.00,,,0.00,Wunderground v.1.15,2013-06-09 22:44:00,
2013-06-09 17:45:00,78.7,70.5,29.58,North,350,1.0,4.0,76,0.00,,,0.00,Wunderground v.1.15,2013-06-09 22:45:00,
2013-06-09 17:46:00,78.4,70.2,29.58,NNW,348,0.0,4.0,76,0.00,,,0.00,Wunderground v.1.15,2013-06-09 22:46:00,
2013-06-09 17:47:00,78.1,70.3,29.58,North,350,0.0,4.0,77,0.00,,,0.00,Wunderground v.1.15,2013-06-09 22:47:00,
2013-06-09 17:49:00,77.9,70.5,29.58,NNE,21,0.0,4.0,78,0.00,,,0.00,Wunderground v.1.15,2013-06-09 22:49:00,
2013-06-09 17:50:00,77.7,70.7,29.58,NNE,28,2.0,4.0,79,0.00,,,0.00,Wunderground v.1.15,2013-06-09 22:50:00,
2013-06-09 17:51:00,77.5,70.8,29.58,NNE,28,0.0,4.0,80,0.00,,,0.00,Wunderground v.1.15,2013-06-09 22:51:00,
2013-06-09 17:52:00,77.4,71.1,29.59,NNE,28,0.0,4.0,81,0.00,,,0.00,Wunderground v.1.15,2013-06-09 22:52:00,
2013-06-09 17:54:00,77.3,71.0,29.59,NNE,28,0.0,4.0,81,0.00,,,0.00,Wunderground v.1.15,2013-06-09 22:54:00,
2013-06-09 17:55:00,77.2,70.9,29.59,NNE,28,0.0,0.0,81,0.00,,,0.00,Wunderground v.1.15,2013-06-09 22:55:00,
2013-06-09 17:57:00,77.1,70.8,29.59,NNE,28,0.0,0.0,81,0.00,,,0.00,Wunderground v.1.15,2013-06-09 22:57:00,
2013-06-09 17:58:00,77.1,70.8,29.59,NNE,33,1.0,2.0,81,0.00,,,0.00,Wunderground v.1.15,2013-06-09 22:58:00,
2013-06-09 17:59:00,77.0,70.7,29.59,NNE,33,0.0,2.0,81,0.00,,,0.01,Wunderground v.1.15,2013-06-09 22:59:00,
2013-06-09 18:02:00,77.0,70.7,29.60,NE,35,0.0,3.0,81,0.00,,,0.01,Wunderground v.1.15,2013-06-09 23:02:00,
2013-06-09 18:03:00,77.0,70.7,29.60,NE,35,0.0,3.0,81,0.00,,,0.01,Wunderground v.1.15,2013-06-09 23:03:00,
2013-06-09 18:05:00,77.0,70.4,29.59,East,88,0.0,0.0,80,0.00,,,0.01,Wunderground v.1.15,2013-06-09 23:05:00,
2013-06-09 18:08:00,77.1,70.1,29.58,WNW,287,3.0,4.0,79,0.00,,,0.01,Wunderground v.1.15,2013-06-09 23:08:00,
2013-06-09 18:10:00,77.1,69.3,29.58,NW,317,0.0,4.0,77,0.00,,,0.01,Wunderground v.1.15,2013-06-09 23:10:00,
2013-06-09 18:13:00,77.1,70.1,29.58,NE,38,0.0,4.0,79,0.00,,,0.01,Wunderground v.1.15,2013-06-09 23:13:00,
2013-06-09 18:15:00,77.1,70.5,29.58,NNW,348,0.0,1.0,80,0.00,,,0.01,Wunderground v.1.15,2013-06-09 23:15:00,
2013-06-09 18:18:00,77.0,70.4,29.59,NW,322,0.0,3.0,80,0.00,,,0.01,Wunderground v.1.15,2013-06-09 23:18:00,
2013-06-09 18:19:00,77.0,70.7,29.59,NW,322,0.0,3.0,81,0.00,,,0.01,Wunderground v.1.15,2013-06-09 23:19:00,
2013-06-09 18:21:00,77.0,70.4,29.59,NW,319,0.0,3.0,80,0.00,,,0.01,Wunderground v.1.15,2013-06-09 23:21:00,
2013-06-09 18:22:00,76.9,70.3,29.59,NW,313,0.0,3.0,80,0.00,,,0.01,Wunderground v.1.15,2013-06-09 23:22:00,
2013-06-09 18:23:00,76.9,71.0,29.59,West,280,0.0,3.0,82,0.00,,,0.01,Wunderground v.1.15,2013-06-09 23:23:00,
2013-06-09 18:24:00,76.8,70.9,29.59,West,280,0.0,3.0,82,0.00,,,0.01,Wunderground v.1.15,2013-06-09 23:24:00,
2013-06-09 18:27:00,76.6,70.3,29.59,WNW,290,1.0,1.0,81,0.00,,,0.01,Wunderground v.1.15,2013-06-09 23:27:00,
2013-06-09 18:29:00,76.4,69.8,29.59,WNW,294,3.0,3.0,80,0.00,,,0.01,Wunderground v.1.15,2013-06-09 23:29:00,
2013-06-09 18:31:00,76.2,69.6,29.59,WNW,301,0.0,3.0,80,0.00,,,0.01,Wunderground v.1.15,2013-06-09 23:31:00,
2013-06-09 18:32:00,76.2,69.6,29.59,SW,216,0.0,3.0,80,0.00,,,0.01,Wunderground v.1.15,2013-06-09 23:32:00,
2013-06-09 18:34:00,76.2,69.9,29.59,SW,215,0.0,3.0,81,0.00,,,0.01,Wunderground v.1.15,2013-06-09 23:34:00,
2013-06-09 18:35:00,76.2,69.9,29.60,SSW,213,0.0,0.0,81,0.00,,,0.01,Wunderground v.1.15,2013-06-09 23:35:00,
2013-06-09 18:36:00,76.2,70.3,29.60,SSW,211,0.0,0.0,82,0.00,,,0.01,Wunderground v.1.15,2013-06-09 23:36:00,
2013-06-09 18:38:00,76.2,70.3,29.60,SSW,211,0.0,0.0,82,0.00,,,0.01,Wunderground v.1.15,2013-06-09 23:38:00,
2013-06-09 18:39:00,76.2,69.6,29.60,SSW,205,0.0,0.0,80,0.00,,,0.01,Wunderground v.1.15,2013-06-09 23:39:00,
2013-06-09 18:41:00,76.2,70.3,29.60,SSW,205,0.0,0.0,82,0.00,,,0.01,Wunderground v.1.15,2013-06-09 23:41:00,
2013-06-09 18:42:00,76.2,70.3,29.60,SSW,205,0.0,0.0,82,0.00,,,0.01,Wunderground v.1.15,2013-06-09 23:42:00,
2013-06-09 18:43:00,76.1,69.8,29.60,SSW,205,0.0,0.0,81,0.00,,,0.01,Wunderground v.1.15,2013-06-09 23:43:00,
2013-06-09 18:44:00,76.1,69.8,29.60,SSW,205,0.0,0.0,81,0.00,,,0.01,Wunderground v.1.15,2013-06-09 23:44:00,
2013-06-09 18:47:00,76.0,69.7,29.60,SSW,205,0.0,0.0,81,0.00,,,0.01,Wunderground v.1.15,2013-06-09 23:47:00,
2013-06-09 18:49:00,76.0,69.7,29.60,SSW,206,0.0,0.0,81,0.00,,,0.01,Wunderground v.1.15,2013-06-09 23:49:00,
2013-06-09 18:50:00,76.0,69.7,29.59,SSW,206,1.0,2.0,81,0.00,,,0.01,Wunderground v.1.15,2013-06-09 23:50:00,
2013-06-09 18:52:00,76.0,69.7,29.59,SSW,209,0.0,2.0,81,0.00,,,0.01,Wunderground v.1.15,2013-06-09 23:52:00,
2013-06-09 18:54:00,76.0,69.4,29.60,SSW,209,0.0,2.0,80,0.00,,,0.01,Wunderground v.1.15,2013-06-09 23:54:00,
2013-06-09 18:57:00,76.0,70.1,29.60,SSW,209,0.0,0.0,82,0.00,,,0.01,Wunderground v.1.15,2013-06-09 23:57:00,
2013-06-09 18:58:00,76.0,70.1,29.60,SSW,209,0.0,0.0,82,0.00,,,0.01,Wunderground v.1.15,2013-06-09 23:58:00,
2013-06-09 18:59:00,76.0,69.7,29.60,SSW,209,0.0,0.0,81,0.00,,,0.01,Wunderground v.1.15,2013-06-09 23:59:00,
2013-06-09 19:00:00,76.0,69.7,29.60,SSW,209,0.0,0.0,81,0.00,,,0.01,Wunderground v.1.15,2013-06-10 00:00:00,
2013-06-09 19:03:00,76.0,69.7,29.60,SSW,209,0.0,0.0,81,0.00,,,0.01,Wunderground v.1.15,2013-06-10 00:03:00,
2013-06-09 19:04:00,76.0,69.7,29.61,SSW,209,0.0,0.0,81,0.00,,,0.01,Wunderground v.1.15,2013-06-10 00:04:00,
2013-06-09 19:05:00,76.0,69.7,29.60,SSW,209,0.0,0.0,81,0.00,,,0.01,Wunderground v.1.15,2013-06-10 00:05:00,
2013-06-09 19:08:00,76.0,70.1,29.61,SSW,209,0.0,0.0,82,0.00,,,0.01,Wunderground v.1.15,2013-06-10 00:08:00,
2013-06-09 19:09:00,76.0,70.1,29.61,SSW,209,0.0,0.0,82,0.00,,,0.01,Wunderground v.1.15,2013-06-10 00:09:00,
2013-06-09 19:10:00,75.9,70.0,29.61,SSW,209,0.0,0.0,82,0.00,,,0.01,Wunderground v.1.15,2013-06-10 00:10:00,
2013-06-09 19:13:00,75.9,70.0,29.61,SSW,200,0.0,0.0,82,0.00,,,0.01,Wunderground v.1.15,2013-06-10 00:13:00,
2013-06-09 19:14:00,75.9,70.0,29.61,SSW,200,0.0,0.0,82,0.00,,,0.01,Wunderground v.1.15,2013-06-10 00:14:00,
2013-06-09 19:15:00,75.9,70.0,29.61,SSW,200,0.0,0.0,82,0.00,,,0.01,Wunderground v.1.15,2013-06-10 00:15:00,
2013-06-09 19:16:00,75.9,70.4,29.61,SSW,200,0.0,0.0,83,0.00,,,0.01,Wunderground v.1.15,2013-06-10 00:16:00,
2013-06-09 19:20:00,75.8,70.6,29.62,South,187,1.0,1.0,84,0.00,,,0.01,Wunderground v.1.15,2013-06-10 00:20:00,
2013-06-09 19:21:00,75.7,70.5,29.62,SSW,194,3.0,4.0,84,0.00,,,0.01,Wunderground v.1.15,2013-06-10 00:21:00,
2013-06-09 19:25:00,75.5,70.7,29.62,South,180,2.0,2.0,85,0.00,,,0.01,Wunderground v.1.15,2013-06-10 00:25:00,
2013-06-09 19:26:00,75.5,71.0,29.62,South,178,2.0,4.0,86,0.00,,,0.01,Wunderground v.1.15,2013-06-10 00:26:00,
2013-06-09 19:30:00,75.3,70.8,29.62,South,178,1.0,4.0,86,0.00,,,0.01,Wunderground v.1.15,2013-06-10 00:30:00,
2013-06-09 19:32:00,75.3,70.8,29.62,South,178,0.0,4.0,86,0.00,,,0.01,Wunderground v.1.15,2013-06-10 00:32:00,
2013-06-09 19:35:00,75.3,71.2,29.62,SSW,202,0.0,1.0,87,0.00,,,0.01,Wunderground v.1.15,2013-06-10 00:35:00,
2013-06-09 19:37:00,75.2,71.1,29.62,WNW,287,0.0,1.0,87,0.00,,,0.01,Wunderground v.1.15,2013-06-10 00:37:00,
2013-06-09 19:38:00,75.2,71.1,29.62,WNW,287,2.0,2.0,87,0.00,,,0.01,Wunderground v.1.15,2013-06-10 00:38:00,
2013-06-09 19:39:00,75.2,70.7,29.62,West,266,1.0,2.0,86,0.00,,,0.01,Wunderground v.1.15,2013-06-10 00:39:00,
2013-06-09 19:41:00,75.1,70.6,29.62,West,264,0.0,2.0,86,0.00,,,0.01,Wunderground v.1.15,2013-06-10 00:41:00,
2013-06-09 19:42:00,75.1,71.0,29.62,West,264,0.0,2.0,87,0.00,,,0.01,Wunderground v.1.15,2013-06-10 00:42:00,
2013-06-09 19:43:00,75.1,71.0,29.62,WSW,237,2.0,2.0,87,0.00,,,0.01,Wunderground v.1.15,2013-06-10 00:43:00,
2013-06-09 19:44:00,75.1,71.0,29.62,SW,231,2.0,2.0,87,0.00,,,0.01,Wunderground v.1.15,2013-06-10 00:44:00,
2013-06-09 19:47:00,75.1,71.3,29.62,South,182,2.0,3.0,88,0.00,,,0.01,Wunderground v.1.15,2013-06-10 00:47:00,
2013-06-09 19:48:00,75.1,71.3,29.62,South,182,4.0,4.0,88,0.00,,,0.01,Wunderground v.1.15,2013-06-10 00:48:00,
2013-06-09 19:49:00,75.1,71.3,29.62,South,182,1.0,4.0,88,0.00,,,0.01,Wunderground v.1.15,2013-06-10 00:49:00,
2013-06-09 19:53:00,75.0,71.5,29.62,South,180,3.0,5.0,89,0.00,,,0.01,Wunderground v.1.15,2013-06-10 00:53:00,
2013-06-09 19:54:00,74.9,71.4,29.62,South,184,2.0,5.0,89,0.00,,,0.01,Wunderground v.1.15,2013-06-10 00:54:00,
2013-06-09 19:58:00,74.6,71.5,29.62,SSW,199,2.0,6.0,90,0.00,,,0.01,Wunderground v.1.15,2013-06-10 00:58:00,
2013-06-09 20:00:00,74.5,71.4,29.62,SSW,199,2.0,6.0,90,0.00,,,0.01,Wunderground v.1.15,2013-06-10 01:00:00,
2013-06-09 20:04:00,74.3,71.2,29.62,SW,219,0.0,6.0,90,0.00,,,0.01,Wunderground v.1.15,2013-06-10 01:04:00,
2013-06-09 20:05:00,74.3,71.2,29.62,SW,216,0.0,2.0,90,0.00,,,0.01,Wunderground v.1.15,2013-06-10 01:05:00,
2013-06-09 20:09:00,74.1,71.0,29.62,SSW,201,4.0,5.0,90,0.00,,,0.01,Wunderground v.1.15,2013-06-10 01:09:00,
2013-06-09 20:10:00,74.0,71.2,29.62,SSW,194,3.0,5.0,91,0.00,,,0.01,Wunderground v.1.15,2013-06-10 01:10:00,
2013-06-09 20:11:00,74.0,71.2,29.62,SSW,194,4.0,5.0,91,0.00,,,0.01,Wunderground v.1.15,2013-06-10 01:11:00,
2013-06-09 20:12:00,73.9,71.1,29.62,SSW,194,3.0,5.0,91,0.00,,,0.01,Wunderground v.1.15,2013-06-10 01:12:00,
2013-06-09 20:14:00,73.7,70.9,29.62,SSW,206,2.0,5.0,91,0.00,,,0.01,Wunderground v.1.15,2013-06-10 01:14:00,
2013-06-09 20:16:00,73.7,70.9,29.62,SSW,200,5.0,7.0,91,0.00,,,0.01,Wunderground v.1.15,2013-06-10 01:16:00,
2013-06-09 20:17:00,73.5,70.7,29.62,South,183,3.0,7.0,91,0.00,,,0.01,Wunderground v.1.15,2013-06-10 01:17:00,
2013-06-09 20:19:00,73.4,70.6,29.62,South,190,6.0,7.0,91,0.00,,,0.01,Wunderground v.1.15,2013-06-10 01:19:00,
2013-06-09 20:20:00,73.4,70.6,29.62,South,187,4.0,7.0,91,0.00,,,0.01,Wunderground v.1.15,2013-06-10 01:20:00,
2013-06-09 20:21:00,73.3,70.5,29.62,South,185,4.0,7.0,91,0.00,,,0.01,Wunderground v.1.15,2013-06-10 01:21:00,
2013-06-09 20:22:00,73.2,70.7,29.62,South,186,2.0,7.0,92,0.00,,,0.01,Wunderground v.1.15,2013-06-10 01:22:00,
2013-06-09 20:25:00,73.1,70.6,29.62,South,178,3.0,4.0,92,0.00,,,0.01,Wunderground v.1.15,2013-06-10 01:25:00,
2013-06-09 20:27:00,73.1,70.6,29.62,South,178,0.0,4.0,92,0.00,,,0.01,Wunderground v.1.15,2013-06-10 01:27:00,
2013-06-09 20:28:00,73.0,70.5,29.62,South,178,2.0,4.0,92,0.00,,,0.01,Wunderground v.1.15,2013-06-10 01:28:00,
2013-06-09 20:30:00,72.9,70.4,29.62,South,178,0.0,4.0,92,0.00,,,0.01,Wunderground v.1.15,2013-06-10 01:30:00,
2013-06-09 20:31:00,73.0,70.5,29.62,South,178,0.0,4.0,92,0.00,,,0.01,Wunderground v.1.15,2013-06-10 01:31:00,
2013-06-09 20:32:00,72.9,70.4,29.62,South,178,0.0,4.0,92,0.00,,,0.01,Wunderground v.1.15,2013-06-10 01:32:00,
2013-06-09 20:33:00,72.9,70.4,29.62,South,178,0.0,4.0,92,0.00,,,0.01,Wunderground v.1.15,2013-06-10 01:33:00,
2013-06-09 20:36:00,72.9,70.4,29.62,South,178,0.0,2.0,92,0.00,,,0.01,Wunderground v.1.15,2013-06-10 01:36:00,
2013-06-09 20:37:00,72.9,70.4,29.62,South,178,0.0,2.0,92,0.00,,,0.01,Wunderground v.1.15,2013-06-10 01:37:00,
2013-06-09 20:38:00,72.9,70.4,29.62,South,178,0.0,2.0,92,0.00,,,0.01,Wunderground v.1.15,2013-06-10 01:38:00,
2013-06-09 20:41:00,72.8,70.3,29.62,South,178,0.0,2.0,92,0.00,,,0.01,Wunderground v.1.15,2013-06-10 01:41:00,
2013-06-09 20:42:00,72.8,70.3,29.62,South,178,2.0,2.0,92,0.00,,,0.01,Wunderground v.1.15,2013-06-10 01:42:00,
2013-06-09 20:43:00,72.8,70.3,29.62,SSE,168,3.0,4.0,92,0.00,,,0.01,Wunderground v.1.15,2013-06-10 01:43:00,
2013-06-09 20:44:00,72.8,70.3,29.62,South,184,1.0,4.0,92,0.00,,,0.01,Wunderground v.1.15,2013-06-10 01:44:00,
2013-06-09 20:47:00,72.7,70.2,29.62,South,184,0.0,3.0,92,0.00,,,0.01,Wunderground v.1.15,2013-06-10 01:47:00,
2013-06-09 20:48:00,72.7,70.2,29.62,South,185,0.0,3.0,92,0.00,,,0.01,Wunderground v.1.15,2013-06-10 01:48:00,
2013-06-09 20:49:00,72.7,70.2,29.62,South,184,0.0,3.0,92,0.00,,,0.01,Wunderground v.1.15,2013-06-10 01:49:00,
2013-06-09 20:52:00,72.7,70.2,29.63,South,185,0.0,3.0,92,0.00,,,0.01,Wunderground v.1.15,2013-06-10 01:52:00,
2013-06-09 20:54:00,72.7,70.2,29.63,South,185,0.0,3.0,92,0.00,,,0.01,Wunderground v.1.15,2013-06-10 01:54:00,
2013-06-09 20:58:00,72.6,70.1,29.63,South,185,0.0,0.0,92,0.00,,,0.01,Wunderground v.1.15,2013-06-10 01:58:00,
2013-06-09 20:59:00,72.6,70.1,29.63,South,184,0.0,0.0,92,0.00,,,0.01,Wunderground v.1.15,2013-06-10 01:59:00,
2013-06-09 21:00:00,72.6,70.1,29.63,South,184,0.0,0.0,92,0.00,,,0.01,Wunderground v.1.15,2013-06-10 02:00:00,
2013-06-09 21:04:00,72.6,70.1,29.63,South,185,1.0,3.0,92,0.00,,,0.01,Wunderground v.1.15,2013-06-10 02:04:00,
2013-06-09 21:05:00,72.6,70.1,29.63,South,184,0.0,1.0,92,0.00,,,0.01,Wunderground v.1.15,2013-06-10 02:05:00,
2013-06-09 21:09:00,72.6,70.1,29.63,South,186,4.0,4.0,92,0.00,,,0.01,Wunderground v.1.15,2013-06-10 02:09:00,
2013-06-09 21:10:00,72.6,70.1,29.63,South,187,2.0,5.0,92,0.00,,,0.01,Wunderground v.1.15,2013-06-10 02:10:00,
2013-06-09 21:11:00,72.6,70.1,29.63,South,187,2.0,5.0,92,0.00,,,0.01,Wunderground v.1.15,2013-06-10 02:11:00,
2013-06-09 21:14:00,72.6,70.1,29.63,South,185,0.0,5.0,92,0.00,,,0.01,Wunderground v.1.15,2013-06-10 02:14:00,
2013-06-09 21:15:00,72.6,70.1,29.64,South,184,0.0,1.0,92,0.00,,,0.01,Wunderground v.1.15,2013-06-10 02:15:00,
2013-06-09 21:16:00,72.6,70.1,29.64,South,184,0.0,1.0,92,0.00,,,0.01,Wunderground v.1.15,2013-06-10 02:16:00,
2013-06-09 21:20:00,72.6,70.1,29.64,South,184,0.0,1.0,92,0.00,,,0.01,Wunderground v.1.15,2013-06-10 02:20:00,
2013-06-09 21:21:00,72.6,70.1,29.64,South,185,0.0,1.0,92,0.00,,,0.01,Wunderground v.1.15,2013-06-10 02:21:00,
2013-06-09 21:22:00,72.6,70.1,29.64,South,185,0.0,1.0,92,0.00,,,0.01,Wunderground v.1.15,2013-06-10 02:22:00,
2013-06-09 21:25:00,72.7,70.2,29.64,South,185,0.0,0.0,92,0.00,,,0.01,Wunderground v.1.15,2013-06-10 02:25:00,
2013-06-09 21:26:00,72.6,70.1,29.64,South,185,0.0,0.0,92,0.00,,,0.01,Wunderground v.1.15,2013-06-10 02:26:00,
2013-06-09 21:27:00,72.7,70.2,29.64,South,185,0.0,0.0,92,0.00,,,0.01,Wunderground v.1.15,2013-06-10 02:27:00,
2013-06-09 21:31:00,72.6,70.1,29.65,South,185,0.0,0.0,92,0.00,,,0.01,Wunderground v.1.15,2013-06-10 02:31:00,
2013-06-09 21:32:00,72.6,70.1,29.65,South,184,0.0,0.0,92,0.00,,,0.01,Wunderground v.1.15,2013-06-10 02:32:00,
2013-06-09 21:36:00,72.5,70.0,29.65,South,185,0.0,0.0,92,0.00,,,0.01,Wunderground v.1.15,2013-06-10 02:36:00,
2013-06-09 21:37:00,72.5,70.0,29.65,South,185,0.0,0.0,92,0.00,,,0.01,Wunderground v.1.15,2013-06-10 02:37:00,
2013-06-09 21:38:00,72.5,70.0,29.65,South,185,0.0,0.0,92,0.00,,,0.01,Wunderground v.1.15,2013-06-10 02:38:00,
2013-06-09 21:41:00,72.4,69.9,29.65,South,185,0.0,0.0,92,0.00,,,0.01,Wunderground v.1.15,2013-06-10 02:41:00,
2013-06-09 21:42:00,72.4,69.9,29.65,South,184,0.0,0.0,92,0.00,,,0.01,Wunderground v.1.15,2013-06-10 02:42:00,
2013-06-09 21:43:00,72.4,69.9,29.65,South,185,0.0,0.0,92,0.00,,,0.01,Wunderground v.1.15,2013-06-10 02:43:00,
2013-06-09 21:47:00,72.4,69.9,29.66,South,185,0.0,0.0,92,0.00,,,0.01,Wunderground v.1.15,2013-06-10 02:47:00,
2013-06-09 21:48:00,72.4,70.3,29.66,South,184,0.0,0.0,93,0.00,,,0.01,Wunderground v.1.15,2013-06-10 02:48:00,
2013-06-09 21:49:00,72.4,70.3,29.66,South,185,0.0,0.0,93,0.00,,,0.01,Wunderground v.1.15,2013-06-10 02:49:00,
2013-06-09 21:52:00,72.4,69.9,29.65,South,185,0.0,0.0,92,0.00,,,0.01,Wunderground v.1.15,2013-06-10 02:52:00,
2013-06-09 21:54:00,72.4,70.3,29.66,South,184,0.0,0.0,93,0.00,,,0.01,Wunderground v.1.15,2013-06-10 02:54:00,
2013-06-09 21:55:00,72.4,70.3,29.66,South,185,0.0,0.0,93,0.00,,,0.01,Wunderground v.1.15,2013-06-10 02:55:00,
2013-06-09 21:58:00,72.3,70.2,29.66,South,185,0.0,0.0,93,0.00,,,0.01,Wunderground v.1.15,2013-06-10 02:58:00,
2013-06-09 21:59:00,72.3,70.2,29.66,South,185,0.0,0.0,93,0.00,,,0.01,Wunderground v.1.15,2013-06-10 02:59:00,
2013-06-09 22:00:00,72.3,70.2,29.66,South,184,0.0,0.0,93,0.00,,,0.01,Wunderground v.1.15,2013-06-10 03:00:00,
2013-06-09 22:04:00,72.2,70.1,29.66,South,184,0.0,0.0,93,0.00,,,0.01,Wunderground v.1.15,2013-06-10 03:04:00,
2013-06-09 22:05:00,72.2,70.1,29.66,South,185,0.0,0.0,93,0.00,,,0.01,Wunderground v.1.15,2013-06-10 03:05:00,
2013-06-09 22:09:00,72.1,70.0,29.65,South,185,1.0,2.0,93,0.00,,,0.01,Wunderground v.1.15,2013-06-10 03:09:00,
2013-06-09 22:10:00,72.1,70.0,29.65,South,185,2.0,2.0,93,0.00,,,0.01,Wunderground v.1.15,2013-06-10 03:10:00,
2013-06-09 22:11:00,72.1,70.0,29.65,South,185,0.0,2.0,93,0.00,,,0.01,Wunderground v.1.15,2013-06-10 03:11:00,
2013-06-09 22:14:00,72.1,70.0,29.65,South,184,0.0,2.0,93,0.00,,,0.01,Wunderground v.1.15,2013-06-10 03:14:00,
2013-06-09 22:15:00,72.1,70.0,29.65,South,184,0.0,1.0,93,0.00,,,0.01,Wunderground v.1.15,2013-06-10 03:15:00,
2013-06-09 22:16:00,72.0,69.5,29.65,South,185,0.0,1.0,92,0.00,,,0.01,Wunderground v.1.15,2013-06-10 03:16:00,
2013-06-09 22:19:00,72.0,69.5,29.65,South,185,0.0,1.0,92,0.00,,,0.01,Wunderground v.1.15,2013-06-10 03:19:00,
2013-06-09 22:20:00,71.9,69.4,29.65,South,184,0.0,1.0,92,0.00,,,0.01,Wunderground v.1.15,2013-06-10 03:20:00,
2013-06-09 22:21:00,71.9,69.4,29.65,South,185,0.0,1.0,92,0.00,,,0.01,Wunderground v.1.15,2013-06-10 03:21:00,
2013-06-09 22:25:00,71.8,69.7,29.65,South,185,0.0,0.0,93,0.00,,,0.01,Wunderground v.1.15,2013-06-10 03:25:00,
2013-06-09 22:26:00,71.8,69.7,29.65,South,185,0.0,0.0,93,0.00,,,0.01,Wunderground v.1.15,2013-06-10 03:26:00,
2013-06-09 22:27:00,71.8,69.7,29.64,South,185,0.0,0.0,93,0.00,,,0.01,Wunderground v.1.15,2013-06-10 03:27:00,
2013-06-09 22:31:00,71.8,69.7,29.65,South,185,0.0,0.0,93,0.00,,,0.01,Wunderground v.1.15,2013-06-10 03:31:00,
2013-06-09 22:32:00,71.7,69.6,29.65,South,185,0.0,0.0,93,0.00,,,0.01,Wunderground v.1.15,2013-06-10 03:32:00,
2013-06-09 22:33:00,71.7,69.6,29.65,South,185,0.0,0.0,93,0.00,,,0.01,Wunderground v.1.15,2013-06-10 03:33:00,
2013-06-09 22:37:00,71.7,69.6,29.65,South,184,0.0,0.0,93,0.00,,,0.01,Wunderground v.1.15,2013-06-10 03:37:00,
2013-06-09 22:38:00,71.7,69.6,29.65,South,185,0.0,0.0,93,0.00,,,0.01,Wunderground v.1.15,2013-06-10 03:38:00,
2013-06-09 22:42:00,71.6,69.5,29.65,South,185,0.0,0.0,93,0.00,,,0.01,Wunderground v.1.15,2013-06-10 03:42:00,
2013-06-09 22:43:00,71.6,69.5,29.65,South,185,0.0,0.0,93,0.00,,,0.01,Wunderground v.1.15,2013-06-10 03:43:00,
2013-06-09 22:47:00,71.5,69.4,29.65,South,185,0.0,0.0,93,0.00,,,0.01,Wunderground v.1.15,2013-06-10 03:47:00,
2013-06-09 22:48:00,71.5,69.4,29.65,South,185,0.0,0.0,93,0.00,,,0.01,Wunderground v.1.15,2013-06-10 03:48:00,
2013-06-09 22:49:00,71.4,69.3,29.65,South,185,0.0,0.0,93,0.00,,,0.01,Wunderground v.1.15,2013-06-10 03:49:00,
2013-06-09 22:53:00,71.3,69.2,29.65,South,185,0.0,0.0,93,0.00,,,0.01,Wunderground v.1.15,2013-06-10 03:53:00,
2013-06-09 22:54:00,71.2,69.1,29.65,South,185,0.0,0.0,93,0.00,,,0.01,Wunderground v.1.15,2013-06-10 03:54:00,
2013-06-09 22:55:00,71.2,69.1,29.65,South,184,0.0,0.0,93,0.00,,,0.01,Wunderground v.1.15,2013-06-10 03:55:00,
2013-06-09 22:58:00,71.0,68.9,29.65,South,185,0.0,0.0,93,0.00,,,0.01,Wunderground v.1.15,2013-06-10 03:58:00,
2013-06-09 22:59:00,71.0,68.9,29.65,South,185,0.0,0.0,93,0.00,,,0.01,Wunderground v.1.15,2013-06-10 03:59:00,
2013-06-09 23:00:00,71.0,68.9,29.65,South,185,0.0,0.0,93,0.00,,,0.01,Wunderground v.1.15,2013-06-10 04:00:00,
2013-06-09 23:01:00,70.9,68.8,29.65,South,184,0.0,0.0,93,0.00,,,0.01,Wunderground v.1.15,2013-06-10 04:01:00,
2013-06-09 23:03:00,70.9,68.8,29.65,South,185,0.0,0.0,93,0.00,,,0.01,Wunderground v.1.15,2013-06-10 04:03:00,
2013-06-09 23:06:00,70.9,69.1,29.65,South,185,0.0,0.0,94,0.00,,,0.01,Wunderground v.1.15,2013-06-10 04:06:00,
2013-06-09 23:07:00,70.9,69.1,29.65,South,184,0.0,0.0,94,0.00,,,0.01,Wunderground v.1.15,2013-06-10 04:07:00,
2013-06-09 23:09:00,71.0,69.2,29.65,South,185,0.0,0.0,94,0.00,,,0.01,Wunderground v.1.15,2013-06-10 04:09:00,
2013-06-09 23:11:00,71.0,69.2,29.65,South,185,0.0,0.0,94,0.00,,,0.01,Wunderground v.1.15,2013-06-10 04:11:00,
2013-06-09 23:12:00,71.0,69.2,29.65,South,184,0.0,0.0,94,0.00,,,0.01,Wunderground v.1.15,2013-06-10 04:12:00,
2013-06-09 23:14:00,71.0,69.2,29.65,South,184,0.0,0.0,94,0.00,,,0.01,Wunderground v.1.15,2013-06-10 04:14:00,
2013-06-09 23:16:00,71.0,69.2,29.65,South,185,0.0,0.0,94,0.00,,,0.01,Wunderground v.1.15,2013-06-10 04:16:00,
2013-06-09 23:17:00,71.0,69.2,29.65,South,185,0.0,0.0,94,0.00,,,0.01,Wunderground v.1.15,2013-06-10 04:17:00,
2013-06-09 23:19:00,71.0,69.2,29.65,South,184,0.0,0.0,94,0.00,,,0.01,Wunderground v.1.15,2013-06-10 04:19:00,
2013-06-09 23:21:00,71.1,69.3,29.65,South,185,0.0,0.0,94,0.00,,,0.01,Wunderground v.1.15,2013-06-10 04:21:00,
2013-06-09 23:22:00,71.1,69.3,29.65,South,185,0.0,0.0,94,0.00,,,0.01,Wunderground v.1.15,2013-06-10 04:22:00,
2013-06-09 23:23:00,71.1,69.3,29.65,South,184,0.0,0.0,94,0.00,,,0.01,Wunderground v.1.15,2013-06-10 04:23:00,
2013-06-09 23:24:00,71.1,69.3,29.65,South,185,0.0,0.0,94,0.00,,,0.01,Wunderground v.1.15,2013-06-10 04:24:00,
2013-06-09 23:27:00,71.0,69.2,29.65,South,185,0.0,0.0,94,0.00,,,0.01,Wunderground v.1.15,2013-06-10 04:27:00,
2013-06-09 23:28:00,71.0,69.2,29.65,South,185,0.0,0.0,94,0.00,,,0.01,Wunderground v.1.15,2013-06-10 04:28:00,
2013-06-09 23:30:00,71.1,69.3,29.65,South,185,0.0,0.0,94,0.00,,,0.01,Wunderground v.1.15,2013-06-10 04:30:00,
2013-06-09 23:33:00,71.0,69.2,29.65,South,185,0.0,0.0,94,0.00,,,0.01,Wunderground v.1.15,2013-06-10 04:33:00,
2013-06-09 23:34:00,71.0,69.2,29.65,South,185,0.0,0.0,94,0.00,,,0.01,Wunderground v.1.15,2013-06-10 04:34:00,
2013-06-09 23:35:00,71.0,69.2,29.65,South,185,0.0,0.0,94,0.00,,,0.01,Wunderground v.1.15,2013-06-10 04:35:00,
2013-06-09 23:38:00,71.0,69.2,29.65,South,185,0.0,0.0,94,0.00,,,0.01,Wunderground v.1.15,2013-06-10 04:38:00,
2013-06-09 23:39:00,71.0,69.2,29.65,South,185,0.0,0.0,94,0.00,,,0.01,Wunderground v.1.15,2013-06-10 04:39:00,
2013-06-09 23:40:00,71.0,69.2,29.65,South,185,0.0,0.0,94,0.00,,,0.01,Wunderground v.1.15,2013-06-10 04:40:00,
2013-06-09 23:41:00,71.0,69.2,29.65,South,185,0.0,0.0,94,0.00,,,0.01,Wunderground v.1.15,2013-06-10 04:41:00,
2013-06-09 23:43:00,71.0,69.2,29.65,South,185,0.0,0.0,94,0.00,,,0.01,Wunderground v.1.15,2013-06-10 04:43:00,
2013-06-09 23:44:00,71.0,69.2,29.65,South,185,0.0,0.0,94,0.00,,,0.01,Wunderground v.1.15,2013-06-10 04:44:00,
2013-06-09 23:45:00,71.0,69.2,29.65,South,185,0.0,0.0,94,0.00,,,0.01,Wunderground v.1.15,2013-06-10 04:45:00,
2013-06-09 23:46:00,71.0,69.2,29.65,South,185,0.0,0.0,94,0.00,,,0.01,Wunderground v.1.15,2013-06-10 04:46:00,
2013-06-09 23:48:00,70.9,69.1,29.65,South,184,0.0,0.0,94,0.00,,,0.01,Wunderground v.1.15,2013-06-10 04:48:00,
2013-06-09 23:49:00,70.9,69.1,29.65,South,184,0.0,0.0,94,0.00,,,0.01,Wunderground v.1.15,2013-06-10 04:49:00,
2013-06-09 23:50:00,70.9,69.1,29.65,South,185,0.0,0.0,94,0.00,,,0.01,Wunderground v.1.15,2013-06-10 04:50:00,
2013-06-09 23:51:00,71.0,69.2,29.65,South,184,0.0,0.0,94,0.00,,,0.01,Wunderground v.1.15,2013-06-10 04:51:00,
2013-06-09 23:54:00,70.9,69.1,29.65,South,185,0.0,0.0,94,0.00,,,0.01,Wunderground v.1.15,2013-06-10 04:54:00,
2013-06-09 23:55:00,70.9,69.1,29.65,South,185,0.0,0.0,94,0.00,,,0.01,Wunderground v.1.15,2013-06-10 04:55:00,
2013-06-09 23:57:00,70.9,69.1,29.65,South,185,0.0,0.0,94,0.00,,,0.01,Wunderground v.1.15,2013-06-10 04:57:00,
2013-06-09 23:59:00,70.9,69.1,29.65,South,184,0.0,0.0,94,0.00,,,0.01,Wunderground v.1.15,2013-06-10 04:59:00,